| time (UTC) | temp F | wind direction | speed MPH | gust MPH | rain 1hr in | rain 24hr in | rain mn in | humidity % | barometer mb |
| 20260906162250 | 73 | 106 | 0.0 | 0.0 | 0.00 | 0.01 | 0.01 | 69 | 1017.3 |
| 20260906162142 | 73 | 62 | 0.0 | 0.0 | 0.00 | 0.01 | 0.01 | 69 | 1017.4 |
| 20260906162040 | 73 | 75 | 0.0 | 0.0 | 0.00 | 0.01 | 0.01 | 70 | 1017.3 |
| 20260906161719 | 73 | 54 | 0.0 | 0.0 | 0.00 | 0.01 | 0.01 | 67 | 1017.3 |
| 20260906161611 | 73 | 36 | 0.0 | 0.0 | 0.00 | 0.01 | 0.01 | 69 | 1017.4 |
| 20260906161510 | 73 | 29 | 0.0 | 0.0 | 0.00 | 0.01 | 0.01 | 70 | 1017.4 |
| 20260906161404 | 73 | 355 | 0.0 | 0.0 | 0.00 | 0.01 | 0.01 | 69 | 1017.3 |
| 20260906161300 | 73 | 47 | 0.0 | 0.0 | 0.00 | 0.01 | 0.01 | 69 | 1017.4 |
| 20260906161153 | 73 | 29 | 0.0 | 0.0 | 0.00 | 0.01 | 0.01 | 72 | 1017.4 |
| 20260906161049 | 73 | 53 | 0.0 | 0.0 | 0.00 | 0.01 | 0.01 | 70 | 1017.3 |
| 20260906160944 | 73 | 92 | 0.0 | 0.0 | 0.00 | 0.01 | 0.01 | 67 | 1017.3 |
| 20260906160843 | 72 | 58 | 0.0 | 0.0 | 0.00 | 0.01 | 0.01 | 68 | 1017.3 |
| 20260906160517 | 72 | 94 | 0.0 | 0.0 | 0.00 | 0.01 | 0.01 | 67 | 1017.3 |
| 20260906160411 | 72 | 71 | 0.0 | 0.0 | 0.00 | 0.01 | 0.01 | 70 | 1017.3 |
| 20260906160304 | 72 | 27 | 0.0 | 0.0 | 0.00 | 0.01 | 0.01 | 71 | 1017.3 |
| 20260906160159 | 72 | 61 | 0.0 | 0.0 | 0.00 | 0.01 | 0.01 | 70 | 1017.3 |
| 20260906160056 | 72 | 57 | 0.0 | 0.0 | 0.00 | 0.01 | 0.01 | 72 | 1017.4 |
| 20260906155952 | 72 | 51 | 0.0 | 0.0 | 0.00 | 0.01 | 0.01 | 70 | 1017.5 |
| 20260906155627 | 71 | 94 | 0.0 | 0.0 | 0.00 | 0.01 | 0.01 | 73 | 1017.4 |
| 20260906155523 | 71 | 37 | 0.0 | 0.0 | 0.00 | 0.01 | 0.01 | 72 | 1017.3 |
| 20260906155417 | 71 | 58 | 0.0 | 0.0 | 0.00 | 0.01 | 0.01 | 74 | 1017.4 |
| 20260906155311 | 71 | 88 | 0.0 | 0.0 | 0.00 | 0.01 | 0.01 | 75 | 1017.3 |
| 20260906155208 | 71 | 67 | 0.0 | 0.0 | 0.00 | 0.01 | 0.01 | 74 | 1017.4 |
| 20260906155105 | 71 | 29 | 0.0 | 0.0 | 0.00 | 0.01 | 0.01 | 74 | 1017.3 |
| 20260906154959 | 71 | 28 | 0.0 | 0.0 | 0.00 | 0.01 | 0.01 | 75 | 1017.3 |
| 20260906154855 | 71 | 28 | 0.0 | 0.0 | 0.00 | 0.01 | 0.01 | 75 | 1017.4 |
| 20260906154749 | 71 | 29 | 0.0 | 0.0 | 0.00 | 0.01 | 0.01 | 76 | 1017.3 |
| 20260906154647 | 71 | 50 | 0.0 | 0.0 | 0.00 | 0.01 | 0.01 | 76 | 1017.3 |
| 20260906154540 | 71 | 13 | 0.0 | 0.0 | 0.00 | 0.01 | 0.01 | 76 | 1017.3 |
| 20260906154435 | 71 | 342 | 0.0 | 0.0 | 0.00 | 0.01 | 0.01 | 76 | 1017.4 |
| 20260906154331 | 71 | 33 | 0.0 | 0.0 | 0.00 | 0.01 | 0.01 | 77 | 1017.3 |
| 20260906154228 | 71 | 33 | 0.0 | 0.0 | 0.00 | 0.01 | 0.01 | 78 | 1017.4 |
| 20260906154126 | 71 | 13 | 0.0 | 0.0 | 0.00 | 0.01 | 0.01 | 79 | 1017.3 |
| 20260906154018 | 71 | 348 | 0.0 | 0.0 | 0.00 | 0.01 | 0.01 | 80 | 1017.3 |
| 20260906153911 | 70 | 18 | 0.0 | 0.0 | 0.00 | 0.01 | 0.01 | 78 | 1017.3 |
| 20260906153807 | 70 | 19 | 0.0 | 0.0 | 0.00 | 0.01 | 0.01 | 79 | 1017.3 |
| 20260906153442 | 70 | 32 | 0.0 | 0.0 | 0.00 | 0.01 | 0.01 | 79 | 1017.2 |
| 20260906153338 | 70 | 31 | 0.0 | 0.0 | 0.00 | 0.01 | 0.01 | 79 | 1017.2 |
| 20260906153232 | 70 | 31 | 0.0 | 0.0 | 0.00 | 0.01 | 0.01 | 79 | 1017.2 |
| 20260906153130 | 70 | 38 | 0.0 | 0.0 | 0.00 | 0.01 | 0.01 | 78 | 1017.2 |
| 20260906153026 | 70 | 68 | 0.0 | 0.0 | 0.00 | 0.01 | 0.01 | 79 | 1017.1 |
| 20260906152923 | 70 | 26 | 0.0 | 0.0 | 0.00 | 0.01 | 0.01 | 79 | 1017.2 |
| 20260906152818 | 70 | 59 | 0.0 | 0.0 | 0.00 | 0.01 | 0.01 | 78 | 1017.2 |
| 20260906152713 | 70 | 24 | 0.0 | 0.0 | 0.00 | 0.01 | 0.01 | 79 | 1017.1 |
| 20260906152608 | 70 | 45 | 0.0 | 0.0 | 0.00 | 0.01 | 0.01 | 79 | 1017.1 |
| 20260906152507 | 70 | 46 | 0.0 | 0.0 | 0.00 | 0.01 | 0.01 | 80 | 1017.1 |
| 20260906152147 | 70 | 71 | 0.0 | 0.0 | 0.00 | 0.01 | 0.01 | 79 | 1017.1 |
| 20260906151818 | 70 | 16 | 0.0 | 0.0 | 0.00 | 0.01 | 0.01 | 78 | 1017.0 |
| 20260906151712 | 70 | 17 | 0.0 | 0.0 | 0.00 | 0.01 | 0.01 | 78 | 1017.1 |
| 20260906151610 | 70 | 17 | 0.0 | 0.0 | 0.00 | 0.01 | 0.01 | 79 | 1017.1 |
| 20260906151507 | 70 | 34 | 0.0 | 0.0 | 0.00 | 0.01 | 0.01 | 78 | 1017.0 |
| 20260906151400 | 71 | 33 | 0.0 | 0.0 | 0.00 | 0.01 | 0.01 | 78 | 1017.0 |
| 20260906151257 | 71 | 22 | 0.0 | 0.0 | 0.00 | 0.01 | 0.01 | 79 | 1017.1 |
| 20260906151154 | 71 | 55 | 0.0 | 0.0 | 0.00 | 0.01 | 0.01 | 79 | 1017.0 |
| 20260906151048 | 70 | 5 | 0.0 | 0.0 | 0.00 | 0.01 | 0.01 | 80 | 1017.0 |
| 20260906150942 | 70 | 53 | 0.0 | 0.0 | 0.00 | 0.01 | 0.01 | 79 | 1017.0 |
| 20260906150839 | 70 | 75 | 0.0 | 0.0 | 0.00 | 0.01 | 0.01 | 80 | 1017.1 |
| 20260906150733 | 70 | 32 | 0.0 | 0.0 | 0.00 | 0.01 | 0.01 | 81 | 1017.0 |
| 20260906150628 | 70 | 59 | 0.0 | 0.0 | 0.00 | 0.01 | 0.01 | 80 | 1017.0 |
| 20260906150521 | 70 | 351 | 0.0 | 0.0 | 0.00 | 0.01 | 0.01 | 81 | 1017.0 |
| 20260906150417 | 70 | 66 | 0.0 | 0.0 | 0.00 | 0.01 | 0.01 | 81 | 1017.0 |
| 20260906150311 | 70 | 88 | 0.0 | 0.0 | 0.00 | 0.01 | 0.01 | 82 | 1016.9 |
| 20260906150207 | 70 | 91 | 0.0 | 0.0 | 0.00 | 0.01 | 0.01 | 82 | 1016.9 |
| 20260906150101 | 70 | 92 | 0.0 | 0.0 | 0.00 | 0.01 | 0.01 | 81 | 1017.0 |
| 20260906145959 | 69 | 82 | 0.0 | 0.0 | 0.00 | 0.01 | 0.01 | 81 | 1017.0 |
| 20260906145853 | 69 | 73 | 0.0 | 0.0 | 0.00 | 0.01 | 0.01 | 82 | 1016.9 |
| 20260906145749 | 69 | 57 | 0.0 | 0.0 | 0.00 | 0.01 | 0.01 | 83 | 1017.0 |
| 20260906145645 | 69 | 27 | 0.0 | 0.0 | 0.00 | 0.01 | 0.01 | 83 | 1016.9 |
| 20260906145539 | 69 | 71 | 0.0 | 0.0 | 0.00 | 0.01 | 0.01 | 83 | 1016.9 |
| 20260906145436 | 69 | 44 | 0.0 | 0.0 | 0.00 | 0.01 | 0.01 | 83 | 1016.9 |
| 20260906145334 | 69 | 88 | 0.0 | 0.0 | 0.00 | 0.01 | 0.01 | 84 | 1016.9 |
| 20260906145228 | 69 | 43 | 0.0 | 0.0 | 0.00 | 0.01 | 0.01 | 84 | 1016.9 |
| 20260906145125 | 69 | 42 | 0.0 | 0.0 | 0.00 | 0.01 | 0.01 | 83 | 1016.9 |
| 20260906145018 | 69 | 42 | 0.0 | 0.0 | 0.00 | 0.01 | 0.01 | 84 | 1016.8 |
| 20260906144912 | 69 | 42 | 0.0 | 0.0 | 0.00 | 0.01 | 0.01 | 84 | 1016.8 |
| 20260906144548 | 69 | 54 | 0.0 | 0.0 | 0.00 | 0.01 | 0.01 | 87 | 1016.8 |
| 20260906144445 | 69 | 37 | 0.0 | 0.0 | 0.00 | 0.01 | 0.01 | 87 | 1016.8 |
| 20260906144341 | 68 | 45 | 0.0 | 0.0 | 0.00 | 0.01 | 0.01 | 87 | 1016.8 |
| 20260906144234 | 68 | 36 | 0.0 | 0.0 | 0.00 | 0.01 | 0.01 | 88 | 1016.9 |
| 20260906143907 | 68 | 31 | 0.0 | 0.0 | 0.00 | 0.01 | 0.01 | 89 | 1016.9 |
| 20260906143802 | 68 | 31 | 0.0 | 0.0 | 0.00 | 0.01 | 0.01 | 89 | 1016.9 |
| 20260906143659 | 67 | 31 | 0.0 | 0.0 | 0.00 | 0.01 | 0.01 | 89 | 1016.9 |
| 20260906143555 | 67 | 18 | 0.0 | 0.0 | 0.00 | 0.01 | 0.01 | 89 | 1017.0 |
| 20260906143448 | 67 | 19 | 0.0 | 0.0 | 0.00 | 0.01 | 0.01 | 89 | 1016.9 |
| 20260906143342 | 67 | 26 | 0.0 | 0.0 | 0.00 | 0.01 | 0.01 | 90 | 1016.9 |
| 20260906143018 | 67 | 38 | 0.0 | 0.0 | 0.00 | 0.01 | 0.01 | 91 | 1016.8 |
| 20260906142915 | 67 | 38 | 0.0 | 0.0 | 0.00 | 0.01 | 0.01 | 91 | 1016.8 |
| 20260906142813 | 67 | 48 | 0.0 | 0.0 | 0.00 | 0.01 | 0.01 | 91 | 1016.8 |
| 20260906142711 | 67 | 24 | 0.0 | 0.0 | 0.00 | 0.01 | 0.01 | 92 | 1016.8 |
| 20260906142126 | 66 | 30 | 0.0 | 0.0 | 0.00 | 0.01 | 0.01 | 92 | 1016.7 |
| 20260906142020 | 66 | 51 | 0.0 | 0.0 | 0.00 | 0.01 | 0.01 | 92 | 1016.8 |
| 20260906141914 | 66 | 18 | 0.0 | 0.0 | 0.00 | 0.01 | 0.01 | 93 | 1016.7 |
| 20260906141809 | 66 | 24 | 0.0 | 0.0 | 0.00 | 0.01 | 0.01 | 93 | 1016.8 |
| 20260906141703 | 66 | 9 | 0.0 | 0.0 | 0.00 | 0.01 | 0.01 | 93 | 1016.8 |
| 20260906141600 | 66 | 20 | 0.0 | 0.0 | 0.00 | 0.01 | 0.01 | 94 | 1016.8 |
| 20260906141456 | 66 | 41 | 0.0 | 0.0 | 0.00 | 0.01 | 0.01 | 94 | 1016.8 |
| 20260906141353 | 65 | 43 | 0.0 | 0.0 | 0.00 | 0.01 | 0.01 | 94 | 1016.8 |
| 20260906141248 | 65 | 33 | 0.0 | 0.0 | 0.00 | 0.01 | 0.01 | 94 | 1016.8 |
| 20260906141145 | 65 | 19 | 0.0 | 0.0 | 0.00 | 0.01 | 0.01 | 94 | 1016.8 |
| 20260906141039 | 65 | 12 | 0.0 | 0.0 | 0.00 | 0.01 | 0.01 | 94 | 1016.9 |
| 20260906140712 | 65 | 355 | 0.0 | 0.0 | 0.00 | 0.01 | 0.01 | 94 | 1016.9 |
| 20260906140609 | 65 | 46 | 0.0 | 0.0 | 0.00 | 0.01 | 0.01 | 94 | 1016.9 |
| 20260906140506 | 65 | 46 | 0.0 | 0.0 | 0.00 | 0.01 | 0.01 | 94 | 1016.8 |
| 20260906140400 | 65 | 49 | 0.0 | 0.0 | 0.00 | 0.01 | 0.01 | 94 | 1016.8 |
| 20260906140254 | 65 | 32 | 0.0 | 0.0 | 0.00 | 0.01 | 0.01 | 94 | 1016.8 |
| 20260906140150 | 65 | 33 | 0.0 | 0.0 | 0.00 | 0.01 | 0.01 | 94 | 1016.8 |
| 20260906140042 | 65 | 49 | 0.0 | 0.0 | 0.00 | 0.01 | 0.01 | 94 | 1016.9 |
| 20260906135936 | 64 | 28 | 0.0 | 0.0 | 0.00 | 0.01 | 0.01 | 94 | 1016.9 |
| 20260906135831 | 64 | 28 | 0.0 | 0.0 | 0.00 | 0.01 | 0.01 | 94 | 1016.9 |
| 20260906135724 | 64 | 28 | 0.0 | 0.0 | 0.00 | 0.01 | 0.01 | 94 | 1016.9 |
| 20260906135620 | 64 | 355 | 0.0 | 0.0 | 0.00 | 0.01 | 0.01 | 95 | 1016.8 |
| 20260906135255 | 64 | 15 | 0.0 | 0.0 | 0.00 | 0.01 | 0.01 | 94 | 1016.8 |
| 20260906135151 | 64 | 17 | 0.0 | 0.0 | 0.00 | 0.01 | 0.01 | 95 | 1016.9 |
| 20260906135044 | 64 | 11 | 0.0 | 0.0 | 0.00 | 0.01 | 0.01 | 95 | 1016.9 |
| 20260906134937 | 64 | 54 | 0.0 | 0.0 | 0.00 | 0.01 | 0.01 | 95 | 1016.8 |
| 20260906134356 | 63 | 5 | 0.0 | 0.0 | 0.00 | 0.01 | 0.01 | 94 | 1016.8 |
| 20260906134251 | 63 | 11 | 0.0 | 0.0 | 0.00 | 0.01 | 0.01 | 94 | 1016.8 |
| 20260906134147 | 63 | 9 | 0.0 | 0.0 | 0.00 | 0.01 | 0.01 | 94 | 1016.9 |
| 20260906134043 | 63 | 9 | 0.0 | 0.0 | 0.00 | 0.01 | 0.01 | 94 | 1016.8 |
| 20260906133937 | 63 | 5 | 0.0 | 0.0 | 0.00 | 0.01 | 0.01 | 95 | 1016.9 |
| 20260906133831 | 63 | 31 | 0.0 | 0.0 | 0.00 | 0.01 | 0.01 | 94 | 1016.8 |
| 20260906133725 | 63 | 50 | 0.0 | 0.0 | 0.00 | 0.01 | 0.01 | 94 | 1016.8 |
| 20260906133620 | 63 | 59 | 0.0 | 0.0 | 0.00 | 0.01 | 0.01 | 94 | 1016.8 |
| 20260906133514 | 63 | 17 | 0.0 | 0.0 | 0.00 | 0.01 | 0.01 | 94 | 1016.8 |
| 20260906133410 | 63 | 52 | 0.0 | 0.0 | 0.00 | 0.01 | 0.01 | 94 | 1016.8 |
| 20260906133047 | 62 | 33 | 0.0 | 0.0 | 0.00 | 0.01 | 0.01 | 94 | 1016.8 |
| 20260906132944 | 62 | 34 | 0.0 | 0.0 | 0.00 | 0.01 | 0.01 | 94 | 1016.8 |
| 20260906132841 | 62 | 63 | 0.0 | 0.0 | 0.00 | 0.01 | 0.01 | 94 | 1016.8 |
| 20260906132736 | 62 | 43 | 0.0 | 0.0 | 0.00 | 0.01 | 0.01 | 94 | 1016.8 |
| 20260906132631 | 62 | 58 | 0.0 | 0.0 | 0.00 | 0.01 | 0.01 | 94 | 1016.8 |
| 20260906132526 | 62 | 77 | 0.0 | 0.0 | 0.00 | 0.01 | 0.01 | 94 | 1016.8 |
| 20260906132420 | 62 | 16 | 0.0 | 0.0 | 0.00 | 0.01 | 0.01 | 94 | 1016.8 |
| 20260906132315 | 62 | 29 | 0.0 | 0.0 | 0.00 | 0.01 | 0.01 | 94 | 1016.8 |
| 20260906132210 | 62 | 5 | 0.0 | 0.0 | 0.00 | 0.01 | 0.01 | 94 | 1016.8 |
| 20260906132102 | 62 | 41 | 0.0 | 0.0 | 0.00 | 0.01 | 0.01 | 94 | 1016.8 |
| 20260906131957 | 62 | 46 | 0.0 | 0.0 | 0.00 | 0.01 | 0.01 | 94 | 1016.8 |
| 20260906131854 | 62 | 51 | 0.0 | 0.0 | 0.00 | 0.01 | 0.01 | 94 | 1016.9 |
| 20260906131747 | 62 | 51 | 0.0 | 0.0 | 0.00 | 0.01 | 0.01 | 94 | 1016.8 |
| 20260906131641 | 62 | 74 | 0.0 | 0.0 | 0.00 | 0.01 | 0.01 | 94 | 1016.8 |
| 20260906131538 | 62 | 57 | 0.0 | 0.0 | 0.00 | 0.01 | 0.01 | 94 | 1016.9 |
| 20260906131436 | 61 | 57 | 0.0 | 0.0 | 0.00 | 0.01 | 0.01 | 94 | 1016.9 |
| 20260906131331 | 61 | 35 | 0.0 | 0.0 | 0.00 | 0.01 | 0.01 | 94 | 1016.9 |
| 20260906131227 | 61 | 34 | 0.0 | 0.0 | 0.00 | 0.01 | 0.01 | 94 | 1016.9 |
| 20260906131122 | 61 | 17 | 0.0 | 0.0 | 0.00 | 0.01 | 0.01 | 94 | 1017.0 |
| 20260906131015 | 61 | 21 | 0.0 | 0.0 | 0.00 | 0.01 | 0.01 | 94 | 1016.9 |
| 20260906130912 | 61 | 29 | 0.0 | 0.0 | 0.00 | 0.01 | 0.01 | 94 | 1016.9 |
| 20260906130811 | 61 | 38 | 0.0 | 0.0 | 0.00 | 0.01 | 0.01 | 94 | 1016.9 |
| 20260906130706 | 61 | 38 | 0.0 | 0.0 | 0.00 | 0.01 | 0.01 | 94 | 1016.8 |
| 20260906130603 | 61 | 14 | 0.0 | 0.0 | 0.00 | 0.01 | 0.01 | 94 | 1016.8 |
| 20260906130457 | 61 | 19 | 0.0 | 0.0 | 0.00 | 0.01 | 0.01 | 94 | 1016.8 |
| 20260906130351 | 61 | 46 | 0.0 | 0.0 | 0.00 | 0.01 | 0.01 | 94 | 1016.8 |
| 20260906130247 | 61 | 60 | 0.0 | 0.0 | 0.00 | 0.01 | 0.01 | 94 | 1016.7 |
| 20260906130140 | 61 | 21 | 0.0 | 0.0 | 0.00 | 0.01 | 0.01 | 94 | 1016.8 |
| 20260906130033 | 61 | 20 | 0.0 | 0.0 | 0.00 | 0.01 | 0.01 | 94 | 1016.8 |
| 20260906125926 | 61 | 30 | 0.0 | 0.0 | 0.00 | 0.01 | 0.01 | 94 | 1016.7 |
| 20260906125824 | 61 | 44 | 0.0 | 0.0 | 0.00 | 0.01 | 0.01 | 94 | 1016.8 |
| 20260906125720 | 61 | 44 | 0.0 | 0.0 | 0.00 | 0.01 | 0.01 | 94 | 1016.7 |
| 20260906125614 | 61 | 22 | 0.0 | 0.0 | 0.00 | 0.01 | 0.01 | 94 | 1016.7 |
| 20260906125248 | 61 | 15 | 0.0 | 0.0 | 0.00 | 0.01 | 0.01 | 94 | 1016.6 |
| 20260906125141 | 61 | 24 | 0.0 | 0.0 | 0.00 | 0.01 | 0.01 | 94 | 1016.7 |
| 20260906125037 | 61 | 44 | 0.0 | 0.0 | 0.00 | 0.01 | 0.01 | 94 | 1016.6 |
| 20260906124930 | 60 | 13 | 0.0 | 0.0 | 0.00 | 0.01 | 0.01 | 94 | 1016.6 |
| 20260906124824 | 60 | 34 | 0.0 | 0.0 | 0.00 | 0.01 | 0.01 | 94 | 1016.6 |
| 20260906124722 | 60 | 15 | 0.0 | 0.0 | 0.00 | 0.01 | 0.01 | 94 | 1016.6 |
| 20260906124617 | 60 | 15 | 0.0 | 0.0 | 0.00 | 0.01 | 0.01 | 94 | 1016.6 |
| 20260906124513 | 60 | 15 | 0.0 | 0.0 | 0.00 | 0.01 | 0.01 | 94 | 1016.6 |
| 20260906124409 | 60 | 22 | 0.0 | 0.0 | 0.00 | 0.01 | 0.01 | 94 | 1016.5 |
| 20260906124302 | 60 | 32 | 0.0 | 0.0 | 0.00 | 0.01 | 0.01 | 94 | 1016.5 |
| 20260906124155 | 60 | 33 | 0.0 | 0.0 | 0.00 | 0.01 | 0.01 | 94 | 1016.5 |
| 20260906124052 | 60 | 34 | 0.0 | 0.0 | 0.00 | 0.01 | 0.01 | 94 | 1016.4 |
| 20260906123948 | 60 | 348 | 0.0 | 0.0 | 0.00 | 0.01 | 0.01 | 94 | 1016.4 |
| 20260906123841 | 60 | 43 | 0.0 | 0.0 | 0.00 | 0.01 | 0.01 | 94 | 1016.4 |
| 20260906123735 | 60 | 32 | 0.0 | 0.0 | 0.00 | 0.01 | 0.01 | 94 | 1016.4 |
| 20260906123408 | 60 | 49 | 0.0 | 0.0 | 0.00 | 0.01 | 0.01 | 94 | 1016.5 |
| 20260906123301 | 60 | 31 | 0.0 | 0.0 | 0.00 | 0.01 | 0.01 | 94 | 1016.4 |
| 20260906122933 | 60 | 66 | 0.0 | 0.0 | 0.00 | 0.01 | 0.01 | 94 | 1016.4 |
| 20260906122613 | 60 | 75 | 0.0 | 0.0 | 0.00 | 0.01 | 0.01 | 94 | 1016.3 |
| 20260906122506 | 60 | 70 | 0.0 | 0.0 | 0.00 | 0.01 | 0.01 | 94 | 1016.3 |
| 20260906122400 | 60 | 52 | 0.0 | 0.0 | 0.00 | 0.01 | 0.01 | 94 | 1016.2 |
| 20260906122258 | 60 | 65 | 0.0 | 0.0 | 0.00 | 0.01 | 0.01 | 94 | 1016.3 |
| 20260906122154 | 60 | 70 | 0.0 | 0.0 | 0.00 | 0.01 | 0.01 | 94 | 1016.2 |
| 20260906122052 | 60 | 50 | 0.0 | 0.0 | 0.00 | 0.01 | 0.01 | 94 | 1016.2 |
| 20260906121949 | 60 | 74 | 0.0 | 0.0 | 0.00 | 0.01 | 0.01 | 94 | 1016.2 |
| 20260906121843 | 60 | 25 | 0.0 | 0.0 | 0.00 | 0.01 | 0.01 | 94 | 1016.2 |
| 20260906121741 | 60 | 26 | 0.0 | 0.0 | 0.00 | 0.01 | 0.01 | 94 | 1016.2 |
| 20260906121636 | 60 | 39 | 0.0 | 0.0 | 0.00 | 0.01 | 0.01 | 94 | 1016.1 |
| 20260906121533 | 60 | 40 | 0.0 | 0.0 | 0.00 | 0.01 | 0.01 | 94 | 1016.2 |
| 20260906121426 | 60 | 55 | 0.0 | 0.0 | 0.00 | 0.01 | 0.01 | 94 | 1016.2 |
| 20260906121102 | 59 | 43 | 0.0 | 0.0 | 0.00 | 0.01 | 0.01 | 94 | 1016.2 |
| 20260906121000 | 59 | 43 | 0.0 | 0.0 | 0.00 | 0.01 | 0.01 | 94 | 1016.2 |
| 20260906120858 | 59 | 43 | 0.0 | 0.0 | 0.00 | 0.01 | 0.01 | 94 | 1016.2 |
| 20260906120756 | 59 | 49 | 0.0 | 0.0 | 0.00 | 0.01 | 0.01 | 94 | 1016.1 |
| 20260906120651 | 59 | 56 | 0.0 | 0.0 | 0.00 | 0.01 | 0.01 | 94 | 1016.1 |
| 20260906120106 | 59 | 75 | 0.0 | 0.0 | 0.00 | 0.01 | 0.01 | 94 | 1016.0 |
| 20260906115744 | 59 | 65 | 0.0 | 0.0 | 0.00 | 0.01 | 0.01 | 94 | 1015.9 |
| 20260906115420 | 59 | 37 | 0.0 | 0.0 | 0.00 | 0.01 | 0.01 | 94 | 1016.0 |
| 20260906115313 | 59 | 36 | 0.0 | 0.0 | 0.00 | 0.01 | 0.01 | 94 | 1016.0 |
| 20260906115209 | 59 | 36 | 0.0 | 0.0 | 0.00 | 0.01 | 0.01 | 94 | 1016.0 |
| 20260906115103 | 59 | 49 | 0.0 | 0.0 | 0.00 | 0.01 | 0.01 | 94 | 1016.0 |
| 20260906114959 | 58 | 34 | 0.0 | 0.0 | 0.00 | 0.01 | 0.01 | 94 | 1016.0 |
| 20260906114857 | 58 | 35 | 0.0 | 0.0 | 0.00 | 0.01 | 0.01 | 94 | 1016.0 |
| 20260906114752 | 58 | 30 | 0.0 | 0.0 | 0.00 | 0.01 | 0.01 | 94 | 1015.9 |
| 20260906114650 | 58 | 31 | 0.0 | 0.0 | 0.00 | 0.01 | 0.01 | 94 | 1015.9 |
| 20260906114544 | 58 | 31 | 0.0 | 0.0 | 0.00 | 0.01 | 0.01 | 94 | 1015.9 |
| 20260906114441 | 58 | 31 | 0.0 | 0.0 | 0.00 | 0.01 | 0.01 | 94 | 1015.9 |
| 20260906114337 | 58 | 31 | 0.0 | 0.0 | 0.00 | 0.01 | 0.01 | 94 | 1015.9 |
| 20260906114231 | 58 | 30 | 0.0 | 0.0 | 0.00 | 0.01 | 0.01 | 94 | 1015.9 |
| 20260906114127 | 58 | 31 | 0.0 | 0.0 | 0.00 | 0.01 | 0.01 | 94 | 1015.9 |
| 20260906114023 | 58 | 31 | 0.0 | 0.0 | 0.00 | 0.01 | 0.01 | 94 | 1015.9 |
| 20260906113916 | 58 | 31 | 0.0 | 0.0 | 0.00 | 0.01 | 0.01 | 94 | 1015.9 |
| 20260906113810 | 58 | 34 | 0.0 | 0.0 | 0.00 | 0.01 | 0.01 | 94 | 1015.9 |
| 20260906113447 | 58 | 57 | 0.0 | 0.0 | 0.00 | 0.01 | 0.01 | 94 | 1015.8 |
| 20260906113340 | 58 | 52 | 0.0 | 0.0 | 0.00 | 0.01 | 0.01 | 94 | 1015.7 |
| 20260906113238 | 58 | 51 | 0.0 | 0.0 | 0.00 | 0.01 | 0.01 | 94 | 1015.7 |
| 20260906112915 | 58 | 51 | 0.0 | 0.0 | 0.00 | 0.01 | 0.01 | 94 | 1015.7 |
| 20260906112811 | 58 | 51 | 0.0 | 0.0 | 0.00 | 0.01 | 0.01 | 94 | 1015.6 |
| 20260906112448 | 58 | 52 | 0.0 | 0.0 | 0.00 | 0.01 | 0.01 | 94 | 1015.6 |
| 20260906112345 | 58 | 52 | 0.0 | 0.0 | 0.00 | 0.01 | 0.01 | 94 | 1015.5 |
| 20260906112240 | 58 | 52 | 0.0 | 0.0 | 0.00 | 0.01 | 0.01 | 94 | 1015.6 |
| 20260906112138 | 58 | 52 | 0.0 | 0.0 | 0.00 | 0.01 | 0.01 | 94 | 1015.6 |
| 20260906112033 | 58 | 52 | 0.0 | 0.0 | 0.00 | 0.01 | 0.01 | 94 | 1015.5 |
| 20260906111932 | 58 | 53 | 0.0 | 0.0 | 0.00 | 0.01 | 0.01 | 94 | 1015.6 |
| 20260906111825 | 58 | 26 | 0.0 | 0.0 | 0.00 | 0.01 | 0.01 | 94 | 1015.6 |
| 20260906111723 | 58 | 26 | 0.0 | 0.0 | 0.00 | 0.01 | 0.01 | 94 | 1015.5 |
| 20260906111618 | 58 | 26 | 0.0 | 0.0 | 0.00 | 0.01 | 0.01 | 94 | 1015.6 |
| 20260906111254 | 58 | 55 | 0.0 | 0.0 | 0.00 | 0.01 | 0.01 | 94 | 1015.6 |
| 20260906111151 | 58 | 49 | 0.0 | 0.0 | 0.00 | 0.01 | 0.01 | 94 | 1015.5 |
| 20260906111045 | 58 | 44 | 0.0 | 0.0 | 0.00 | 0.01 | 0.01 | 94 | 1015.5 |
| 20260906110940 | 58 | 44 | 0.0 | 0.0 | 0.00 | 0.01 | 0.01 | 94 | 1015.5 |
| 20260906110834 | 58 | 44 | 0.0 | 0.0 | 0.00 | 0.01 | 0.01 | 94 | 1015.5 |
| 20260906110728 | 58 | 44 | 0.0 | 0.0 | 0.00 | 0.01 | 0.01 | 94 | 1015.5 |
| 20260906110624 | 58 | 44 | 0.0 | 0.0 | 0.00 | 0.01 | 0.01 | 94 | 1015.4 |
| 20260906110518 | 58 | 44 | 0.0 | 0.0 | 0.00 | 0.01 | 0.01 | 94 | 1015.5 |
| 20260906110412 | 58 | 44 | 0.0 | 0.0 | 0.00 | 0.01 | 0.01 | 94 | 1015.4 |
| 20260906110306 | 58 | 44 | 0.0 | 0.0 | 0.00 | 0.01 | 0.01 | 94 | 1015.4 |
| 20260906110203 | 58 | 45 | 0.0 | 0.0 | 0.00 | 0.01 | 0.01 | 94 | 1015.6 |
| 20260906105843 | 58 | 41 | 0.0 | 0.0 | 0.00 | 0.01 | 0.01 | 94 | 1015.6 |
| 20260906105735 | 58 | 41 | 0.0 | 0.0 | 0.00 | 0.01 | 0.01 | 94 | 1015.6 |
| 20260906105628 | 58 | 41 | 0.0 | 0.0 | 0.00 | 0.01 | 0.01 | 94 | 1015.6 |
| 20260906105307 | 58 | 42 | 0.0 | 0.0 | 0.00 | 0.01 | 0.01 | 94 | 1015.5 |
| 20260906105203 | 58 | 41 | 0.0 | 0.0 | 0.00 | 0.01 | 0.01 | 94 | 1015.5 |
| 20260906105057 | 58 | 41 | 0.0 | 0.0 | 0.00 | 0.01 | 0.01 | 94 | 1015.5 |
| 20260906104953 | 58 | 41 | 0.0 | 0.0 | 0.00 | 0.01 | 0.01 | 94 | 1015.4 |
| 20260906104851 | 58 | 22 | 0.0 | 0.0 | 0.00 | 0.01 | 0.01 | 94 | 1015.4 |
| 20260906104744 | 58 | 22 | 0.0 | 0.0 | 0.00 | 0.01 | 0.01 | 94 | 1015.4 |
| 20260906104638 | 58 | 21 | 0.0 | 0.0 | 0.00 | 0.01 | 0.01 | 94 | 1015.4 |
| 20260906104532 | 58 | 21 | 0.0 | 0.0 | 0.00 | 0.01 | 0.01 | 94 | 1015.4 |
| 20260906104428 | 58 | 21 | 0.0 | 0.0 | 0.00 | 0.01 | 0.01 | 94 | 1015.4 |
| 20260906104322 | 58 | 20 | 0.0 | 0.0 | 0.00 | 0.01 | 0.01 | 94 | 1015.4 |
| 20260906104220 | 58 | 19 | 0.0 | 0.0 | 0.00 | 0.01 | 0.01 | 94 | 1015.3 |
| 20260906104114 | 58 | 19 | 0.0 | 0.0 | 0.00 | 0.01 | 0.01 | 94 | 1015.3 |
| 20260906104011 | 58 | 19 | 0.0 | 0.0 | 0.00 | 0.01 | 0.01 | 94 | 1015.3 |
| 20260906103909 | 58 | 19 | 0.0 | 0.0 | 0.00 | 0.01 | 0.01 | 94 | 1015.2 |
| 20260906103804 | 58 | 19 | 0.0 | 0.0 | 0.00 | 0.01 | 0.01 | 94 | 1015.2 |
| 20260906103659 | 58 | 17 | 0.0 | 0.0 | 0.00 | 0.01 | 0.01 | 94 | 1015.2 |
| 20260906103556 | 58 | 17 | 0.0 | 0.0 | 0.00 | 0.01 | 0.01 | 94 | 1015.2 |
| 20260906103452 | 58 | 25 | 0.0 | 0.0 | 0.00 | 0.01 | 0.01 | 94 | 1015.2 |
| 20260906103124 | 58 | 22 | 0.0 | 0.0 | 0.00 | 0.01 | 0.01 | 94 | 1015.2 |
| 20260906103019 | 58 | 23 | 0.0 | 0.0 | 0.00 | 0.01 | 0.01 | 94 | 1015.2 |
| 20260906102916 | 58 | 22 | 0.0 | 0.0 | 0.00 | 0.01 | 0.01 | 94 | 1015.1 |
| 20260906102811 | 58 | 22 | 0.0 | 0.0 | 0.00 | 0.01 | 0.01 | 94 | 1015.1 |
| 20260906102705 | 58 | 22 | 0.0 | 0.0 | 0.00 | 0.01 | 0.01 | 94 | 1015.1 |
| 20260906102345 | 58 | 22 | 0.0 | 0.0 | 0.00 | 0.01 | 0.01 | 94 | 1015.1 |
| 20260906102242 | 57 | 22 | 0.0 | 0.0 | 0.00 | 0.01 | 0.01 | 94 | 1015.0 |
| 20260906102138 | 58 | 22 | 0.0 | 0.0 | 0.00 | 0.01 | 0.01 | 94 | 1015.0 |
| 20260906101817 | 57 | 22 | 0.0 | 0.0 | 0.00 | 0.01 | 0.01 | 94 | 1015.0 |
| 20260906101714 | 58 | 22 | 0.0 | 0.0 | 0.00 | 0.01 | 0.01 | 94 | 1015.0 |
| 20260906101607 | 58 | 22 | 0.0 | 0.0 | 0.00 | 0.01 | 0.01 | 94 | 1015.0 |
| 20260906101501 | 58 | 15 | 0.0 | 0.0 | 0.00 | 0.01 | 0.01 | 94 | 1014.9 |
| 20260906101358 | 58 | 15 | 0.0 | 0.0 | 0.00 | 0.01 | 0.01 | 94 | 1014.9 |
| 20260906101254 | 58 | 15 | 0.0 | 0.0 | 0.00 | 0.01 | 0.01 | 94 | 1014.9 |
| 20260906101147 | 58 | 15 | 0.0 | 0.0 | 0.00 | 0.01 | 0.01 | 94 | 1014.9 |
| 20260906101045 | 57 | 30 | 0.0 | 0.0 | 0.00 | 0.01 | 0.01 | 94 | 1014.9 |
| 20260906100721 | 57 | 44 | 0.0 | 0.0 | 0.00 | 0.01 | 0.01 | 94 | 1014.9 |
| 20260906100613 | 57 | 44 | 0.0 | 0.0 | 0.00 | 0.01 | 0.01 | 94 | 1014.9 |
| 20260906100509 | 57 | 35 | 0.0 | 0.0 | 0.00 | 0.01 | 0.01 | 94 | 1014.9 |
| 20260906100403 | 57 | 35 | 0.0 | 0.0 | 0.00 | 0.01 | 0.01 | 94 | 1014.8 |
| 20260906100256 | 57 | 35 | 0.0 | 0.0 | 0.00 | 0.01 | 0.01 | 94 | 1014.9 |
| 20260906100150 | 57 | 35 | 0.0 | 0.0 | 0.00 | 0.01 | 0.01 | 94 | 1014.8 |
| 20260906095826 | 57 | 35 | 0.0 | 0.0 | 0.00 | 0.01 | 0.01 | 94 | 1014.9 |
| 20260906095723 | 57 | 35 | 0.0 | 0.0 | 0.00 | 0.01 | 0.01 | 94 | 1014.9 |
| 20260906095616 | 57 | 35 | 0.0 | 0.0 | 0.00 | 0.01 | 0.01 | 94 | 1014.9 |
| 20260906095514 | 57 | 35 | 0.0 | 0.0 | 0.00 | 0.01 | 0.01 | 94 | 1014.9 |
| 20260906095406 | 57 | 18 | 0.0 | 0.0 | 0.00 | 0.01 | 0.01 | 94 | 1014.9 |
| 20260906095305 | 57 | 18 | 0.0 | 0.0 | 0.00 | 0.01 | 0.01 | 94 | 1014.9 |
| 20260906095159 | 57 | 18 | 0.0 | 0.0 | 0.00 | 0.01 | 0.01 | 94 | 1014.9 |
| 20260906095055 | 57 | 17 | 0.0 | 0.0 | 0.00 | 0.01 | 0.01 | 94 | 1014.8 |
| 20260906094948 | 57 | 17 | 0.0 | 0.0 | 0.00 | 0.01 | 0.01 | 94 | 1014.9 |
| 20260906094845 | 57 | 17 | 0.0 | 0.0 | 0.00 | 0.01 | 0.01 | 94 | 1014.9 |
| 20260906094741 | 56 | 17 | 0.0 | 0.0 | 0.00 | 0.01 | 0.01 | 94 | 1014.9 |
| 20260906094414 | 56 | 28 | 0.0 | 0.0 | 0.00 | 0.01 | 0.01 | 94 | 1014.8 |
| 20260906094049 | 56 | 48 | 0.0 | 0.0 | 0.00 | 0.01 | 0.01 | 94 | 1014.8 |
| 20260906093944 | 56 | 48 | 0.0 | 0.0 | 0.00 | 0.01 | 0.01 | 94 | 1014.8 |
| 20260906093838 | 56 | 48 | 0.0 | 0.0 | 0.00 | 0.01 | 0.01 | 94 | 1014.8 |
| 20260906093737 | 56 | 48 | 0.0 | 0.0 | 0.00 | 0.01 | 0.01 | 93 | 1014.8 |
| 20260906093630 | 55 | 48 | 0.0 | 0.0 | 0.00 | 0.01 | 0.01 | 93 | 1014.8 |
| 20260906093524 | 55 | 48 | 0.0 | 0.0 | 0.00 | 0.01 | 0.01 | 93 | 1014.9 |
| 20260906093417 | 55 | 49 | 0.0 | 0.0 | 0.00 | 0.01 | 0.01 | 93 | 1014.9 |
| 20260906093055 | 55 | 48 | 0.0 | 0.0 | 0.00 | 0.01 | 0.01 | 93 | 1014.9 |
| 20260906092952 | 55 | 48 | 0.0 | 0.0 | 0.00 | 0.01 | 0.01 | 93 | 1015.0 |
| 20260906092629 | 55 | 48 | 0.0 | 0.0 | 0.00 | 0.01 | 0.01 | 93 | 1015.0 |
| 20260906092526 | 55 | 48 | 0.0 | 0.0 | 0.00 | 0.01 | 0.01 | 93 | 1015.0 |
| 20260906092420 | 55 | 48 | 0.0 | 0.0 | 0.00 | 0.01 | 0.01 | 93 | 1015.0 |
| 20260906092313 | 56 | 48 | 0.0 | 0.0 | 0.00 | 0.01 | 0.01 | 93 | 1015.0 |
| 20260906091948 | 56 | 48 | 0.0 | 0.0 | 0.00 | 0.01 | 0.01 | 93 | 1015.1 |
| 20260906090930 | 56 | 48 | 0.0 | 0.0 | 0.00 | 0.01 | 0.01 | 93 | 1015.0 |
| 20260906090827 | 56 | 48 | 0.0 | 0.0 | 0.00 | 0.01 | 0.01 | 93 | 1014.9 |
| 20260906090720 | 56 | 48 | 0.0 | 0.0 | 0.00 | 0.01 | 0.01 | 93 | 1014.9 |
| 20260906090612 | 56 | 48 | 0.0 | 0.0 | 0.00 | 0.01 | 0.01 | 93 | 1015.0 |
| 20260906090507 | 56 | 48 | 0.0 | 0.0 | 0.00 | 0.01 | 0.01 | 93 | 1014.9 |
| 20260906090139 | 56 | 48 | 0.0 | 0.0 | 0.00 | 0.01 | 0.01 | 93 | 1015.0 |
| 20260906085815 | 56 | 48 | 0.0 | 0.0 | 0.00 | 0.01 | 0.01 | 93 | 1015.0 |
| 20260906085713 | 56 | 48 | 0.0 | 0.0 | 0.00 | 0.01 | 0.01 | 93 | 1015.0 |
| 20260906085608 | 56 | 48 | 0.0 | 0.0 | 0.00 | 0.01 | 0.01 | 93 | 1015.1 |
| 20260906085502 | 56 | 48 | 0.0 | 0.0 | 0.00 | 0.01 | 0.01 | 93 | 1015.0 |
| 20260906085358 | 56 | 48 | 0.0 | 0.0 | 0.00 | 0.01 | 0.01 | 93 | 1015.0 |
| 20260906085250 | 56 | 48 | 0.0 | 0.0 | 0.00 | 0.01 | 0.01 | 93 | 1015.1 |
| 20260906085145 | 56 | 48 | 0.0 | 0.0 | 0.00 | 0.01 | 0.01 | 93 | 1015.0 |
| 20260906085039 | 56 | 48 | 0.0 | 0.0 | 0.00 | 0.01 | 0.01 | 93 | 1015.0 |
| 20260906084932 | 56 | 48 | 0.0 | 0.0 | 0.00 | 0.01 | 0.01 | 93 | 1015.0 |
| 20260906084830 | 56 | 48 | 0.0 | 0.0 | 0.00 | 0.01 | 0.01 | 93 | 1015.0 |
| 20260906084728 | 56 | 48 | 0.0 | 0.0 | 0.00 | 0.01 | 0.01 | 93 | 1015.0 |
| 20260906084624 | 56 | 48 | 0.0 | 0.0 | 0.00 | 0.01 | 0.01 | 93 | 1015.0 |
| 20260906084519 | 56 | 48 | 0.0 | 0.0 | 0.00 | 0.01 | 0.01 | 93 | 1015.0 |
| 20260906084414 | 56 | 48 | 0.0 | 0.0 | 0.00 | 0.01 | 0.01 | 93 | 1014.9 |
| 20260906084051 | 56 | 48 | 0.0 | 0.0 | 0.00 | 0.01 | 0.01 | 93 | 1014.9 |
| 20260906083945 | 56 | 48 | 0.0 | 0.0 | 0.00 | 0.01 | 0.01 | 93 | 1014.9 |
| 20260906083838 | 56 | 48 | 0.0 | 0.0 | 0.00 | 0.01 | 0.01 | 93 | 1014.9 |
| 20260906083736 | 56 | 48 | 0.0 | 0.0 | 0.00 | 0.01 | 0.01 | 93 | 1014.9 |
| 20260906083633 | 56 | 48 | 0.0 | 0.0 | 0.00 | 0.01 | 0.01 | 93 | 1014.9 |
| 20260906083529 | 56 | 48 | 0.0 | 0.0 | 0.00 | 0.01 | 0.01 | 93 | 1014.9 |
| 20260906083427 | 56 | 48 | 0.0 | 0.0 | 0.00 | 0.01 | 0.01 | 93 | 1014.9 |
| 20260906083323 | 56 | 48 | 0.0 | 0.0 | 0.00 | 0.01 | 0.01 | 93 | 1014.9 |
| 20260906083221 | 56 | 48 | 0.0 | 0.0 | 0.00 | 0.01 | 0.01 | 93 | 1014.9 |
| 20260906082855 | 56 | 48 | 0.0 | 0.0 | 0.00 | 0.01 | 0.01 | 93 | 1014.9 |
| 20260906082749 | 56 | 48 | 0.0 | 0.0 | 0.00 | 0.01 | 0.01 | 93 | 1014.9 |
| 20260906082647 | 56 | 48 | 0.0 | 0.0 | 0.00 | 0.01 | 0.01 | 93 | 1014.9 |
| 20260906082544 | 56 | 48 | 0.0 | 0.0 | 0.00 | 0.01 | 0.01 | 93 | 1014.9 |
| 20260906082220 | 56 | 48 | 0.0 | 0.0 | 0.00 | 0.01 | 0.01 | 93 | 1014.8 |
| 20260906082114 | 56 | 48 | 0.0 | 0.0 | 0.00 | 0.01 | 0.01 | 93 | 1014.9 |
| 20260906082006 | 56 | 48 | 0.0 | 0.0 | 0.00 | 0.01 | 0.01 | 93 | 1014.9 |
| 20260906081904 | 56 | 48 | 0.0 | 0.0 | 0.00 | 0.01 | 0.01 | 93 | 1014.9 |
| 20260906081801 | 56 | 48 | 0.0 | 0.0 | 0.00 | 0.01 | 0.01 | 93 | 1014.9 |
| 20260906081658 | 56 | 48 | 0.0 | 0.0 | 0.00 | 0.01 | 0.01 | 93 | 1014.8 |
| 20260906081555 | 56 | 48 | 0.0 | 0.0 | 0.00 | 0.01 | 0.01 | 93 | 1014.8 |
| 20260906081452 | 56 | 48 | 0.0 | 0.0 | 0.00 | 0.01 | 0.01 | 93 | 1014.8 |
| 20260906081344 | 56 | 48 | 0.0 | 0.0 | 0.00 | 0.01 | 0.01 | 92 | 1014.8 |
| 20260906081240 | 56 | 48 | 0.0 | 0.0 | 0.00 | 0.01 | 0.01 | 93 | 1014.8 |
| 20260906081136 | 56 | 48 | 0.0 | 0.0 | 0.00 | 0.01 | 0.01 | 93 | 1014.8 |
| 20260906081029 | 56 | 48 | 0.0 | 0.0 | 0.00 | 0.01 | 0.01 | 93 | 1014.8 |
| 20260906080926 | 56 | 48 | 0.0 | 0.0 | 0.00 | 0.01 | 0.01 | 93 | 1014.8 |
| 20260906080821 | 56 | 48 | 0.0 | 0.0 | 0.00 | 0.01 | 0.01 | 93 | 1014.8 |
| 20260906080714 | 56 | 48 | 0.0 | 0.0 | 0.00 | 0.01 | 0.01 | 93 | 1014.8 |
| 20260906080607 | 56 | 48 | 0.0 | 0.0 | 0.00 | 0.01 | 0.01 | 93 | 1014.9 |
| 20260906080501 | 56 | 48 | 0.0 | 0.0 | 0.00 | 0.01 | 0.01 | 93 | 1014.9 |
| 20260906080359 | 56 | 48 | 0.0 | 0.0 | 0.00 | 0.01 | 0.01 | 93 | 1014.9 |
| 20260906080252 | 56 | 48 | 0.0 | 0.0 | 0.00 | 0.01 | 0.01 | 93 | 1014.9 |
| 20260906080147 | 56 | 48 | 0.0 | 0.0 | 0.00 | 0.01 | 0.01 | 93 | 1014.9 |
| 20260906080043 | 56 | 48 | 0.0 | 0.0 | 0.00 | 0.01 | 0.01 | 93 | 1014.9 |
| 20260906075939 | 56 | 48 | 0.0 | 0.0 | 0.00 | 0.01 | 0.01 | 93 | 1014.9 |
| 20260906075832 | 56 | 48 | 0.0 | 0.0 | 0.00 | 0.01 | 0.01 | 93 | 1014.9 |
| 20260906075725 | 56 | 48 | 0.0 | 0.0 | 0.00 | 0.01 | 0.01 | 93 | 1014.9 |
| 20260906075618 | 56 | 48 | 0.0 | 0.0 | 0.00 | 0.01 | 0.01 | 93 | 1014.9 |
| 20260906075513 | 56 | 48 | 0.0 | 0.0 | 0.00 | 0.01 | 0.01 | 93 | 1014.9 |
| 20260906075409 | 56 | 48 | 0.0 | 0.0 | 0.00 | 0.01 | 0.01 | 93 | 1015.0 |
| 20260906075306 | 56 | 48 | 0.0 | 0.0 | 0.00 | 0.01 | 0.01 | 93 | 1014.9 |
| 20260906074941 | 56 | 48 | 0.0 | 0.0 | 0.00 | 0.01 | 0.01 | 93 | 1014.9 |
| 20260906074836 | 56 | 48 | 0.0 | 0.0 | 0.00 | 0.01 | 0.01 | 93 | 1014.8 |
| 20260906074510 | 56 | 48 | 0.0 | 0.0 | 0.00 | 0.01 | 0.01 | 93 | 1014.8 |
| 20260906074147 | 56 | 48 | 0.0 | 0.0 | 0.00 | 0.01 | 0.01 | 92 | 1014.8 |
| 20260906074044 | 56 | 48 | 0.0 | 0.0 | 0.00 | 0.01 | 0.01 | 92 | 1014.8 |
| 20260906073939 | 56 | 48 | 0.0 | 0.0 | 0.00 | 0.01 | 0.01 | 92 | 1014.8 |
| 20260906073611 | 56 | 48 | 0.0 | 0.0 | 0.00 | 0.01 | 0.01 | 92 | 1014.7 |
| 20260906073504 | 56 | 48 | 0.0 | 0.0 | 0.00 | 0.01 | 0.01 | 92 | 1014.7 |
| 20260906073356 | 56 | 48 | 0.0 | 0.0 | 0.00 | 0.01 | 0.01 | 92 | 1014.7 |
| 20260906073253 | 56 | 48 | 0.0 | 0.0 | 0.00 | 0.01 | 0.01 | 92 | 1014.7 |
| 20260906073151 | 56 | 48 | 0.0 | 0.0 | 0.00 | 0.01 | 0.01 | 92 | 1014.7 |
| 20260906072829 | 57 | 48 | 0.0 | 0.0 | 0.00 | 0.01 | 0.01 | 92 | 1014.6 |
| 20260906072723 | 57 | 48 | 0.0 | 0.0 | 0.00 | 0.01 | 0.01 | 92 | 1014.6 |
| 20260906071915 | 57 | 48 | 0.0 | 0.0 | 0.00 | 0.01 | 0.01 | 92 | 1014.7 |
| 20260906071810 | 57 | 48 | 0.0 | 0.0 | 0.00 | 0.01 | 0.01 | 92 | 1014.7 |
| 20260906071704 | 57 | 48 | 0.0 | 0.0 | 0.00 | 0.01 | 0.01 | 92 | 1014.7 |
| 20260906071337 | 57 | 48 | 0.0 | 0.0 | 0.00 | 0.01 | 0.01 | 92 | 1014.7 |
| 20260906071234 | 57 | 48 | 0.0 | 0.0 | 0.00 | 0.01 | 0.01 | 93 | 1014.7 |
| 20260906071128 | 57 | 48 | 0.0 | 0.0 | 0.00 | 0.01 | 0.01 | 93 | 1014.7 |
| 20260906071025 | 57 | 48 | 0.0 | 0.0 | 0.00 | 0.01 | 0.01 | 93 | 1014.7 |
| 20260906070923 | 57 | 48 | 0.0 | 0.0 | 0.00 | 0.01 | 0.01 | 93 | 1014.7 |
| 20260906070820 | 57 | 48 | 0.0 | 0.0 | 0.00 | 0.01 | 0.01 | 93 | 1014.6 |
| 20260906070713 | 57 | 48 | 0.0 | 0.0 | 0.00 | 0.01 | 0.01 | 93 | 1014.6 |
| 20260906070607 | 57 | 48 | 0.0 | 0.0 | 0.00 | 0.01 | 0.01 | 93 | 1014.6 |
| 20260906070503 | 57 | 48 | 0.0 | 0.0 | 0.00 | 0.01 | 0.01 | 93 | 1014.6 |
| 20260906070357 | 57 | 48 | 0.0 | 0.0 | 0.00 | 0.01 | 0.01 | 93 | 1014.6 |
| 20260906070252 | 57 | 48 | 0.0 | 0.0 | 0.00 | 0.01 | 0.01 | 93 | 1014.6 |
| 20260906070148 | 57 | 48 | 0.0 | 0.0 | 0.00 | 0.01 | 0.01 | 93 | 1014.6 |
| 20260906070042 | 57 | 48 | 0.0 | 0.0 | 0.00 | 0.01 | 0.01 | 93 | 1014.6 |
| 20260906065936 | 57 | 48 | 0.0 | 0.0 | 0.00 | 0.01 | 0.01 | 93 | 1014.6 |
| 20260906065835 | 57 | 48 | 0.0 | 0.0 | 0.00 | 0.01 | 0.01 | 93 | 1014.6 |
| 20260906065728 | 57 | 48 | 0.0 | 0.0 | 0.00 | 0.01 | 0.01 | 93 | 1014.5 |
| 20260906065622 | 57 | 48 | 0.0 | 0.0 | 0.00 | 0.01 | 0.01 | 93 | 1014.5 |
| 20260906065519 | 57 | 48 | 0.0 | 0.0 | 0.00 | 0.01 | 0.01 | 93 | 1014.6 |
| 20260906065416 | 57 | 48 | 0.0 | 0.0 | 0.00 | 0.01 | 0.01 | 93 | 1014.6 |
| 20260906065313 | 57 | 48 | 0.0 | 0.0 | 0.00 | 0.01 | 0.01 | 93 | 1014.6 |
| 20260906065208 | 57 | 48 | 0.0 | 0.0 | 0.00 | 0.01 | 0.01 | 92 | 1014.6 |
| 20260906065105 | 57 | 48 | 0.0 | 0.0 | 0.00 | 0.01 | 0.01 | 92 | 1014.6 |
| 20260906064740 | 57 | 48 | 0.0 | 0.0 | 0.00 | 0.01 | 0.01 | 92 | 1014.6 |
| 20260906064634 | 57 | 48 | 0.0 | 0.0 | 0.00 | 0.01 | 0.01 | 92 | 1014.5 |
| 20260906064532 | 57 | 48 | 0.0 | 0.0 | 0.00 | 0.01 | 0.01 | 92 | 1014.5 |
| 20260906064426 | 57 | 48 | 0.0 | 0.0 | 0.00 | 0.01 | 0.01 | 92 | 1014.5 |
| 20260906064319 | 57 | 48 | 0.0 | 0.0 | 0.00 | 0.01 | 0.01 | 92 | 1014.4 |
| 20260906063951 | 57 | 48 | 0.0 | 0.0 | 0.00 | 0.01 | 0.01 | 92 | 1014.4 |
| 20260906063145 | 58 | 48 | 0.0 | 0.0 | 0.00 | 0.00 | 0.00 | 93 | 1014.5 |
| 20260906062820 | 58 | 48 | 0.0 | 0.0 | 0.00 | 0.00 | 0.00 | 93 | 1014.5 |
| 20260906062716 | 58 | 48 | 0.0 | 0.0 | 0.00 | 0.00 | 0.00 | 93 | 1014.5 |
| 20260906062352 | 58 | 48 | 0.0 | 0.0 | 0.00 | 0.00 | 0.00 | 93 | 1014.5 |
| 20260906062247 | 58 | 48 | 0.0 | 0.0 | 0.00 | 0.00 | 0.00 | 93 | 1014.5 |
| 20260906062144 | 58 | 48 | 0.0 | 0.0 | 0.00 | 0.00 | 0.00 | 93 | 1014.5 |
| 20260906062041 | 58 | 48 | 0.0 | 0.0 | 0.00 | 0.00 | 0.00 | 93 | 1014.5 |
| 20260906061936 | 58 | 48 | 0.0 | 0.0 | 0.00 | 0.00 | 0.00 | 93 | 1014.5 |
| 20260906061830 | 58 | 48 | 0.0 | 0.0 | 0.00 | 0.00 | 0.00 | 93 | 1014.5 |
| 20260906061723 | 58 | 48 | 0.0 | 0.0 | 0.00 | 0.00 | 0.00 | 93 | 1014.5 |
| 20260906061620 | 58 | 48 | 0.0 | 0.0 | 0.00 | 0.00 | 0.00 | 93 | 1014.5 |
| 20260906061256 | 58 | 49 | 0.0 | 0.0 | 0.00 | 0.00 | 0.00 | 93 | 1014.4 |
| 20260906061149 | 58 | 50 | 0.0 | 0.0 | 0.00 | 0.00 | 0.00 | 92 | 1014.4 |
| 20260906061046 | 58 | 56 | 0.0 | 0.0 | 0.00 | 0.00 | 0.00 | 92 | 1014.4 |
| 20260906060942 | 58 | 56 | 0.0 | 0.0 | 0.00 | 0.00 | 0.00 | 92 | 1014.4 |
| 20260906060835 | 58 | 57 | 0.0 | 0.0 | 0.00 | 0.00 | 0.00 | 92 | 1014.4 |
| 20260906060730 | 58 | 57 | 0.0 | 0.0 | 0.00 | 0.00 | 0.00 | 92 | 1014.4 |
| 20260906060624 | 58 | 57 | 0.0 | 0.0 | 0.00 | 0.00 | 0.00 | 92 | 1014.4 |
| 20260906060518 | 58 | 57 | 0.0 | 0.0 | 0.00 | 0.00 | 0.00 | 92 | 1014.5 |
| 20260906060412 | 58 | 57 | 0.0 | 0.0 | 0.00 | 0.00 | 0.00 | 92 | 1014.5 |
| 20260906060306 | 58 | 57 | 0.0 | 0.0 | 0.00 | 0.00 | 0.00 | 92 | 1014.5 |
| 20260906060204 | 58 | 57 | 0.0 | 0.0 | 0.00 | 0.00 | 0.00 | 92 | 1014.4 |
| 20260906060056 | 58 | 57 | 0.0 | 0.0 | 0.00 | 0.00 | 0.00 | 92 | 1014.4 |
| 20260906055954 | 58 | 57 | 0.0 | 0.0 | 0.00 | 0.00 | 0.00 | 92 | 1014.4 |
| 20260906055850 | 58 | 57 | 0.0 | 0.0 | 0.00 | 0.00 | 0.00 | 92 | 1014.4 |
| 20260906055745 | 58 | 57 | 0.0 | 0.0 | 0.00 | 0.00 | 0.00 | 92 | 1014.4 |
| 20260906055426 | 58 | 57 | 0.0 | 0.0 | 0.00 | 0.00 | 0.00 | 92 | 1014.3 |
| 20260906055319 | 58 | 57 | 0.0 | 0.0 | 0.00 | 0.00 | 0.00 | 92 | 1014.3 |
| 20260906055217 | 58 | 57 | 0.0 | 0.0 | 0.00 | 0.00 | 0.00 | 92 | 1014.3 |
| 20260906054850 | 58 | 57 | 0.0 | 0.0 | 0.00 | 0.00 | 0.00 | 92 | 1014.3 |
| 20260906054747 | 58 | 57 | 0.0 | 0.0 | 0.00 | 0.00 | 0.00 | 92 | 1014.3 |
| 20260906054640 | 58 | 57 | 0.0 | 0.0 | 0.00 | 0.00 | 0.00 | 92 | 1014.3 |
| 20260906054534 | 58 | 57 | 0.0 | 0.0 | 0.00 | 0.00 | 0.00 | 92 | 1014.3 |
| 20260906054432 | 58 | 57 | 0.0 | 0.0 | 0.00 | 0.00 | 0.00 | 92 | 1014.3 |
| 20260906054326 | 58 | 57 | 0.0 | 0.0 | 0.00 | 0.00 | 0.00 | 92 | 1014.3 |
| 20260906054224 | 58 | 57 | 0.0 | 0.0 | 0.00 | 0.00 | 0.00 | 92 | 1014.3 |
| 20260906054121 | 58 | 57 | 0.0 | 0.0 | 0.00 | 0.00 | 0.00 | 92 | 1014.3 |
| 20260906054016 | 58 | 57 | 0.0 | 0.0 | 0.00 | 0.00 | 0.00 | 92 | 1014.3 |
| 20260906053910 | 58 | 57 | 0.0 | 0.0 | 0.00 | 0.00 | 0.00 | 92 | 1014.3 |
| 20260906053808 | 58 | 57 | 0.0 | 0.0 | 0.00 | 0.00 | 0.00 | 92 | 1014.3 |
| 20260906053704 | 58 | 57 | 0.0 | 0.0 | 0.00 | 0.00 | 0.00 | 92 | 1014.2 |
| 20260906053341 | 58 | 57 | 0.0 | 0.0 | 0.00 | 0.00 | 0.00 | 92 | 1014.1 |
| 20260906053238 | 58 | 57 | 0.0 | 0.0 | 0.00 | 0.00 | 0.00 | 92 | 1014.1 |
| 20260906053132 | 58 | 57 | 0.0 | 0.0 | 0.00 | 0.00 | 0.00 | 92 | 1014.1 |
| 20260906053028 | 58 | 57 | 0.0 | 0.0 | 0.00 | 0.00 | 0.00 | 92 | 1014.1 |
| 20260906052705 | 58 | 57 | 0.0 | 0.0 | 0.00 | 0.00 | 0.00 | 91 | 1014.0 |
| 20260906052602 | 58 | 57 | 0.0 | 0.0 | 0.00 | 0.00 | 0.00 | 91 | 1014.0 |
| 20260906052455 | 58 | 57 | 0.0 | 0.0 | 0.00 | 0.00 | 0.00 | 91 | 1014.0 |
| 20260906052349 | 58 | 57 | 0.0 | 0.0 | 0.00 | 0.00 | 0.00 | 91 | 1014.0 |
| 20260906052242 | 58 | 57 | 0.0 | 0.0 | 0.00 | 0.00 | 0.00 | 91 | 1014.0 |
| 20260906052135 | 58 | 57 | 0.0 | 0.0 | 0.00 | 0.00 | 0.00 | 91 | 1014.0 |
| 20260906052028 | 59 | 57 | 0.0 | 0.0 | 0.00 | 0.00 | 0.00 | 91 | 1014.0 |
| 20260906051438 | 59 | 57 | 0.0 | 0.0 | 0.00 | 0.00 | 0.00 | 91 | 1014.0 |
| 20260906051112 | 59 | 57 | 0.0 | 0.0 | 0.00 | 0.00 | 0.00 | 91 | 1014.0 |
| 20260906050528 | 59 | 57 | 0.0 | 0.0 | 0.00 | 0.00 | 0.00 | 91 | 1014.1 |
| 20260906050423 | 59 | 57 | 0.0 | 0.0 | 0.00 | 0.00 | 0.00 | 91 | 1014.2 |
| 20260906050316 | 60 | 57 | 0.0 | 0.0 | 0.00 | 0.00 | 0.00 | 91 | 1014.2 |
| 20260906050210 | 60 | 57 | 0.0 | 0.0 | 0.00 | 0.00 | 0.00 | 91 | 1014.2 |
| 20260906050106 | 60 | 57 | 0.0 | 0.0 | 0.00 | 0.00 | 0.00 | 91 | 1014.2 |
| 20260906050002 | 60 | 57 | 0.0 | 0.0 | 0.00 | 0.00 | 0.00 | 91 | 1014.2 |
| 20260906045859 | 60 | 57 | 0.0 | 0.0 | 0.00 | 0.01 | 0.00 | 91 | 1014.3 |
| 20260906045752 | 60 | 57 | 0.0 | 0.0 | 0.00 | 0.01 | 0.00 | 91 | 1014.3 |
| 20260906045646 | 60 | 57 | 0.0 | 0.0 | 0.00 | 0.01 | 0.00 | 91 | 1014.3 |
| 20260906045544 | 60 | 57 | 0.0 | 0.0 | 0.00 | 0.01 | 0.00 | 91 | 1014.3 |
| 20260906045438 | 60 | 57 | 0.0 | 0.0 | 0.00 | 0.01 | 0.00 | 91 | 1014.3 |
| 20260906045334 | 60 | 57 | 0.0 | 0.0 | 0.00 | 0.01 | 0.00 | 91 | 1014.3 |
| 20260906045228 | 60 | 57 | 0.0 | 0.0 | 0.00 | 0.01 | 0.00 | 91 | 1014.3 |
| 20260906045121 | 60 | 57 | 0.0 | 0.0 | 0.00 | 0.01 | 0.00 | 91 | 1014.3 |
| 20260906045017 | 60 | 57 | 0.0 | 0.0 | 0.00 | 0.01 | 0.00 | 91 | 1014.2 |
| 20260906044914 | 60 | 57 | 0.0 | 0.0 | 0.00 | 0.01 | 0.00 | 91 | 1014.2 |
| 20260906044811 | 60 | 57 | 0.0 | 0.0 | 0.00 | 0.01 | 0.00 | 91 | 1014.3 |
| 20260906044704 | 60 | 57 | 0.0 | 0.0 | 0.00 | 0.01 | 0.00 | 91 | 1014.2 |
| 20260906044600 | 60 | 57 | 0.0 | 0.0 | 0.00 | 0.01 | 0.00 | 91 | 1014.2 |
| 20260906044235 | 60 | 57 | 0.0 | 0.0 | 0.00 | 0.01 | 0.00 | 91 | 1014.2 |
| 20260906044128 | 60 | 57 | 0.0 | 0.0 | 0.00 | 0.01 | 0.00 | 91 | 1014.2 |
| 20260906044021 | 60 | 57 | 0.0 | 0.0 | 0.00 | 0.01 | 0.00 | 91 | 1014.2 |
| 20260906043914 | 60 | 57 | 0.0 | 0.0 | 0.00 | 0.01 | 0.00 | 91 | 1014.2 |
| 20260906043807 | 60 | 57 | 0.0 | 0.0 | 0.00 | 0.02 | 0.00 | 90 | 1014.2 |
| 20260906043703 | 60 | 57 | 0.0 | 0.0 | 0.00 | 0.02 | 0.00 | 90 | 1014.2 |
| 20260906042858 | 61 | 57 | 0.0 | 0.0 | 0.00 | 0.02 | 0.00 | 90 | 1014.1 |
| 20260906042755 | 61 | 57 | 0.0 | 0.0 | 0.00 | 0.02 | 0.00 | 90 | 1014.1 |
| 20260906042651 | 61 | 57 | 0.0 | 0.0 | 0.00 | 0.02 | 0.00 | 90 | 1014.1 |
| 20260906042548 | 61 | 57 | 0.0 | 0.0 | 0.00 | 0.02 | 0.00 | 90 | 1014.1 |
| 20260906042442 | 61 | 57 | 0.0 | 0.0 | 0.00 | 0.02 | 0.00 | 90 | 1014.1 |
| 20260906042337 | 61 | 57 | 0.0 | 0.0 | 0.00 | 0.02 | 0.00 | 90 | 1014.0 |
| 20260906042233 | 61 | 57 | 0.0 | 0.0 | 0.00 | 0.02 | 0.00 | 90 | 1014.0 |
| 20260906042130 | 61 | 57 | 0.0 | 0.0 | 0.00 | 0.02 | 0.00 | 90 | 1014.0 |
| 20260906041543 | 62 | 57 | 0.0 | 0.0 | 0.00 | 0.02 | 0.00 | 90 | 1013.9 |
| 20260906041221 | 62 | 57 | 0.0 | 0.0 | 0.00 | 0.02 | 0.00 | 90 | 1014.0 |
| 20260906041118 | 62 | 57 | 0.0 | 0.0 | 0.00 | 0.02 | 0.00 | 90 | 1014.0 |
| 20260906040754 | 62 | 57 | 0.0 | 0.0 | 0.00 | 0.02 | 0.00 | 89 | 1014.2 |
| 20260906040646 | 62 | 57 | 0.0 | 0.0 | 0.00 | 0.02 | 0.00 | 90 | 1014.2 |
| 20260906040543 | 62 | 57 | 0.0 | 0.0 | 0.00 | 0.02 | 0.00 | 89 | 1014.2 |
| 20260906040220 | 62 | 57 | 0.0 | 0.0 | 0.00 | 0.02 | 0.00 | 89 | 1014.2 |
| 20260906035852 | 62 | 57 | 0.0 | 0.0 | 0.00 | 0.02 | 0.02 | 89 | 1014.2 |
| 20260906035748 | 62 | 57 | 0.0 | 0.0 | 0.00 | 0.02 | 0.02 | 89 | 1014.2 |
| 20260906035644 | 62 | 57 | 0.0 | 0.0 | 0.00 | 0.02 | 0.02 | 89 | 1014.1 |
| 20260906035539 | 62 | 57 | 0.0 | 0.0 | 0.00 | 0.02 | 0.02 | 89 | 1014.1 |
| 20260906035436 | 63 | 57 | 0.0 | 0.0 | 0.00 | 0.02 | 0.02 | 88 | 1014.1 |
| 20260906035329 | 63 | 57 | 0.0 | 0.0 | 0.00 | 0.02 | 0.02 | 88 | 1014.1 |
| 20260906035225 | 63 | 57 | 0.0 | 0.0 | 0.00 | 0.02 | 0.02 | 88 | 1014.1 |
| 20260906035122 | 63 | 57 | 0.0 | 0.0 | 0.00 | 0.02 | 0.02 | 88 | 1014.1 |
| 20260906035015 | 63 | 57 | 0.0 | 0.0 | 0.00 | 0.02 | 0.02 | 88 | 1014.1 |
| 20260906034912 | 63 | 57 | 0.0 | 0.0 | 0.00 | 0.02 | 0.02 | 88 | 1014.0 |
| 20260906034807 | 63 | 57 | 0.0 | 0.0 | 0.00 | 0.02 | 0.02 | 88 | 1014.0 |
| 20260906034702 | 63 | 57 | 0.0 | 0.0 | 0.00 | 0.02 | 0.02 | 88 | 1014.1 |
| 20260906034559 | 63 | 57 | 0.0 | 0.0 | 0.00 | 0.02 | 0.02 | 88 | 1014.1 |
| 20260906034455 | 63 | 57 | 0.0 | 0.0 | 0.00 | 0.02 | 0.02 | 88 | 1014.1 |
| 20260906034350 | 63 | 57 | 0.0 | 0.0 | 0.00 | 0.02 | 0.02 | 88 | 1014.0 |
| 20260906034247 | 63 | 57 | 0.0 | 0.0 | 0.00 | 0.02 | 0.02 | 88 | 1014.0 |
| 20260906034142 | 63 | 57 | 0.0 | 0.0 | 0.00 | 0.02 | 0.02 | 87 | 1014.0 |
| 20260906034039 | 63 | 57 | 0.0 | 0.0 | 0.00 | 0.02 | 0.02 | 87 | 1014.1 |
| 20260906033933 | 63 | 57 | 0.0 | 0.0 | 0.00 | 0.02 | 0.02 | 87 | 1014.0 |
| 20260906033826 | 63 | 57 | 0.0 | 0.0 | 0.00 | 0.02 | 0.02 | 87 | 1014.0 |
| 20260906033722 | 63 | 57 | 0.0 | 0.0 | 0.00 | 0.02 | 0.02 | 87 | 1014.1 |
| 20260906033617 | 64 | 57 | 0.0 | 0.0 | 0.00 | 0.02 | 0.02 | 87 | 1014.0 |
| 20260906033513 | 64 | 57 | 0.0 | 0.0 | 0.00 | 0.02 | 0.02 | 87 | 1014.0 |
| 20260906033406 | 64 | 57 | 0.0 | 0.0 | 0.00 | 0.02 | 0.02 | 87 | 1014.0 |
| 20260906033259 | 64 | 57 | 0.0 | 0.0 | 0.00 | 0.02 | 0.02 | 87 | 1014.0 |
| 20260906033156 | 64 | 57 | 0.0 | 0.0 | 0.00 | 0.02 | 0.02 | 87 | 1013.9 |
| 20260906032828 | 64 | 57 | 0.0 | 0.0 | 0.00 | 0.02 | 0.02 | 86 | 1013.9 |
| 20260906032723 | 64 | 57 | 0.0 | 0.0 | 0.00 | 0.02 | 0.02 | 86 | 1013.9 |
| 20260906032620 | 64 | 57 | 0.0 | 0.0 | 0.00 | 0.02 | 0.02 | 86 | 1013.9 |
| 20260906032517 | 64 | 57 | 0.0 | 0.0 | 0.00 | 0.02 | 0.02 | 86 | 1013.9 |
| 20260906032414 | 64 | 57 | 0.0 | 0.0 | 0.00 | 0.02 | 0.02 | 86 | 1014.0 |
| 20260906032309 | 64 | 57 | 0.0 | 0.0 | 0.00 | 0.02 | 0.02 | 86 | 1014.0 |
| 20260906032205 | 64 | 57 | 0.0 | 0.0 | 0.00 | 0.02 | 0.02 | 86 | 1013.9 |
| 20260906031840 | 65 | 57 | 0.0 | 0.0 | 0.00 | 0.02 | 0.02 | 86 | 1013.9 |
| 20260906031736 | 65 | 57 | 0.0 | 0.0 | 0.00 | 0.02 | 0.02 | 86 | 1013.9 |
| 20260906031633 | 65 | 57 | 0.0 | 0.0 | 0.00 | 0.02 | 0.02 | 86 | 1013.9 |
| 20260906031305 | 65 | 57 | 0.0 | 0.0 | 0.00 | 0.02 | 0.02 | 86 | 1013.8 |
| 20260906031203 | 65 | 57 | 0.0 | 0.0 | 0.00 | 0.02 | 0.02 | 86 | 1013.8 |
| 20260906031056 | 65 | 57 | 0.0 | 0.0 | 0.00 | 0.02 | 0.02 | 86 | 1013.8 |
| 20260906030508 | 65 | 57 | 0.0 | 0.0 | 0.00 | 0.02 | 0.02 | 86 | 1013.7 |
| 20260906030142 | 65 | 57 | 0.0 | 0.0 | 0.00 | 0.02 | 0.02 | 87 | 1013.7 |
| 20260906030035 | 65 | 57 | 0.0 | 0.0 | 0.00 | 0.02 | 0.02 | 87 | 1013.7 |
| 20260906025927 | 65 | 57 | 0.0 | 0.0 | 0.00 | 0.02 | 0.02 | 87 | 1013.7 |
| 20260906025821 | 65 | 57 | 0.0 | 0.0 | 0.00 | 0.02 | 0.02 | 87 | 1013.7 |
| 20260906025714 | 65 | 57 | 0.0 | 0.0 | 0.00 | 0.02 | 0.02 | 87 | 1013.7 |
| 20260906025609 | 65 | 57 | 0.0 | 0.0 | 0.00 | 0.02 | 0.02 | 88 | 1013.7 |
| 20260906025507 | 65 | 57 | 0.0 | 0.0 | 0.00 | 0.02 | 0.02 | 88 | 1013.7 |
| 20260906025138 | 65 | 57 | 0.0 | 0.0 | 0.00 | 0.02 | 0.02 | 88 | 1013.7 |
| 20260906025034 | 65 | 57 | 0.0 | 0.0 | 0.00 | 0.02 | 0.02 | 88 | 1013.7 |
| 20260906024931 | 65 | 57 | 0.0 | 0.0 | 0.00 | 0.02 | 0.02 | 88 | 1013.7 |
| 20260906024826 | 65 | 57 | 0.0 | 0.0 | 0.00 | 0.02 | 0.02 | 88 | 1013.7 |
| 20260906024721 | 65 | 57 | 0.0 | 0.0 | 0.00 | 0.02 | 0.02 | 89 | 1013.6 |
| 20260906024617 | 65 | 57 | 0.0 | 0.0 | 0.00 | 0.02 | 0.02 | 89 | 1013.7 |
| 20260906024250 | 65 | 57 | 0.0 | 0.0 | 0.00 | 0.02 | 0.02 | 89 | 1013.6 |
| 20260906024143 | 65 | 57 | 0.0 | 0.0 | 0.00 | 0.02 | 0.02 | 90 | 1013.6 |
| 20260906024036 | 65 | 57 | 0.0 | 0.0 | 0.00 | 0.02 | 0.02 | 90 | 1013.6 |
| 20260906023929 | 65 | 57 | 0.0 | 0.0 | 0.00 | 0.02 | 0.02 | 90 | 1013.6 |
| 20260906023825 | 65 | 57 | 0.0 | 0.0 | 0.00 | 0.02 | 0.02 | 90 | 1013.6 |
| 20260906023721 | 65 | 57 | 0.0 | 0.0 | 0.00 | 0.02 | 0.02 | 90 | 1013.6 |
| 20260906023617 | 65 | 57 | 0.0 | 0.0 | 0.00 | 0.02 | 0.02 | 90 | 1013.6 |
| 20260906023512 | 65 | 57 | 0.0 | 0.0 | 0.00 | 0.02 | 0.02 | 90 | 1013.6 |
| 20260906023407 | 65 | 57 | 0.0 | 0.0 | 0.00 | 0.02 | 0.02 | 90 | 1013.6 |
| 20260906023305 | 65 | 57 | 0.0 | 0.0 | 0.00 | 0.02 | 0.02 | 91 | 1013.5 |
| 20260906023157 | 65 | 57 | 0.0 | 0.0 | 0.00 | 0.02 | 0.02 | 91 | 1013.5 |
| 20260906023051 | 65 | 57 | 0.0 | 0.0 | 0.00 | 0.02 | 0.02 | 91 | 1013.5 |
| 20260906022726 | 66 | 57 | 0.0 | 0.0 | 0.00 | 0.02 | 0.02 | 91 | 1013.5 |
| 20260906022619 | 65 | 57 | 0.0 | 0.0 | 0.00 | 0.02 | 0.02 | 91 | 1013.4 |
| 20260906022513 | 66 | 57 | 0.0 | 0.0 | 0.00 | 0.02 | 0.02 | 91 | 1013.5 |
| 20260906022410 | 66 | 57 | 0.0 | 0.0 | 0.00 | 0.02 | 0.02 | 91 | 1013.4 |
| 20260906022306 | 66 | 57 | 0.0 | 0.0 | 0.00 | 0.02 | 0.02 | 91 | 1013.4 |
| 20260906022200 | 66 | 57 | 0.0 | 0.0 | 0.00 | 0.02 | 0.02 | 91 | 1013.4 |
| 20260906022053 | 66 | 77 | 0.0 | 0.0 | 0.00 | 0.02 | 0.02 | 91 | 1013.4 |
| 20260906021506 | 66 | 77 | 0.0 | 0.0 | 0.00 | 0.02 | 0.02 | 91 | 1013.3 |
| 20260906021400 | 66 | 77 | 0.0 | 0.0 | 0.00 | 0.02 | 0.02 | 91 | 1013.3 |
| 20260906021253 | 66 | 77 | 0.0 | 0.0 | 0.00 | 0.02 | 0.02 | 91 | 1013.2 |
| 20260906021148 | 66 | 77 | 0.0 | 0.0 | 0.00 | 0.02 | 0.02 | 91 | 1013.2 |
| 20260906021042 | 66 | 77 | 0.0 | 0.0 | 0.00 | 0.02 | 0.02 | 91 | 1013.2 |
| 20260906020939 | 66 | 77 | 0.0 | 0.0 | 0.00 | 0.02 | 0.02 | 91 | 1013.2 |
| 20260906020835 | 66 | 77 | 0.0 | 0.0 | 0.00 | 0.02 | 0.02 | 91 | 1013.1 |
| 20260906020509 | 66 | 77 | 0.0 | 0.0 | 0.00 | 0.02 | 0.02 | 92 | 1013.1 |
| 20260906020401 | 66 | 77 | 0.0 | 0.0 | 0.00 | 0.02 | 0.02 | 92 | 1013.1 |
| 20260906020035 | 67 | 77 | 0.0 | 0.0 | 0.00 | 0.02 | 0.02 | 92 | 1013.0 |
| 20260906015930 | 67 | 77 | 0.0 | 0.0 | 0.00 | 0.02 | 0.02 | 92 | 1013.0 |
| 20260906015824 | 67 | 77 | 0.0 | 0.0 | 0.00 | 0.02 | 0.02 | 91 | 1013.0 |
| 20260906015722 | 67 | 77 | 0.0 | 0.0 | 0.00 | 0.02 | 0.02 | 91 | 1013.0 |
| 20260906015616 | 67 | 77 | 0.0 | 0.0 | 0.00 | 0.02 | 0.02 | 91 | 1013.0 |
| 20260906015511 | 67 | 77 | 0.0 | 0.0 | 0.00 | 0.02 | 0.02 | 91 | 1013.1 |
| 20260906015408 | 67 | 77 | 0.0 | 0.0 | 0.00 | 0.02 | 0.02 | 91 | 1013.1 |
| 20260906015300 | 67 | 77 | 0.0 | 0.0 | 0.00 | 0.02 | 0.02 | 91 | 1013.1 |
| 20260906015153 | 67 | 77 | 0.0 | 0.0 | 0.00 | 0.02 | 0.02 | 91 | 1013.1 |
| 20260906015047 | 67 | 77 | 0.0 | 0.0 | 0.00 | 0.02 | 0.02 | 91 | 1013.0 |
| 20260906014939 | 67 | 77 | 0.0 | 0.0 | 0.00 | 0.02 | 0.02 | 91 | 1013.0 |
| 20260906014833 | 67 | 77 | 0.0 | 0.0 | 0.00 | 0.02 | 0.02 | 91 | 1013.0 |
| 20260906014508 | 67 | 77 | 0.0 | 0.0 | 0.00 | 0.02 | 0.02 | 91 | 1013.0 |
| 20260906014402 | 67 | 77 | 0.0 | 0.0 | 0.00 | 0.02 | 0.02 | 91 | 1013.0 |
| 20260906014300 | 67 | 77 | 0.0 | 0.0 | 0.00 | 0.02 | 0.02 | 91 | 1013.0 |
| 20260906013936 | 67 | 77 | 0.0 | 0.0 | 0.00 | 0.02 | 0.02 | 90 | 1013.0 |
| 20260906013829 | 67 | 77 | 0.0 | 0.0 | 0.00 | 0.02 | 0.02 | 91 | 1012.9 |
| 20260906013725 | 67 | 77 | 0.0 | 0.0 | 0.00 | 0.02 | 0.02 | 90 | 1012.9 |
| 20260906013618 | 67 | 77 | 0.0 | 0.0 | 0.00 | 0.02 | 0.02 | 90 | 1012.9 |
| 20260906013038 | 67 | 77 | 0.0 | 0.0 | 0.00 | 0.02 | 0.02 | 90 | 1012.8 |
| 20260906012711 | 67 | 77 | 0.0 | 0.0 | 0.00 | 0.02 | 0.02 | 90 | 1012.8 |
| 20260906012604 | 67 | 77 | 0.0 | 0.0 | 0.00 | 0.02 | 0.02 | 90 | 1012.8 |
| 20260906012459 | 68 | 77 | 0.0 | 0.0 | 0.00 | 0.02 | 0.02 | 90 | 1012.8 |
| 20260906012356 | 68 | 77 | 0.0 | 0.0 | 0.00 | 0.02 | 0.02 | 90 | 1012.7 |
| 20260906012249 | 68 | 77 | 0.0 | 0.0 | 0.00 | 0.02 | 0.02 | 90 | 1012.8 |
| 20260906012144 | 68 | 77 | 0.0 | 0.0 | 0.00 | 0.02 | 0.02 | 90 | 1012.8 |
| 20260906012038 | 68 | 77 | 0.0 | 0.0 | 0.00 | 0.02 | 0.02 | 90 | 1012.7 |
| 20260906011936 | 68 | 77 | 0.0 | 0.0 | 0.00 | 0.02 | 0.02 | 90 | 1012.7 |
| 20260906011831 | 68 | 77 | 0.0 | 0.0 | 0.00 | 0.02 | 0.02 | 90 | 1012.7 |
| 20260906011505 | 68 | 77 | 0.0 | 0.0 | 0.00 | 0.02 | 0.02 | 90 | 1012.7 |
| 20260906011358 | 68 | 77 | 0.0 | 0.0 | 0.00 | 0.02 | 0.02 | 90 | 1012.7 |
| 20260906011253 | 68 | 77 | 0.0 | 0.0 | 0.00 | 0.02 | 0.02 | 90 | 1012.7 |
| 20260906011151 | 68 | 77 | 0.0 | 0.0 | 0.00 | 0.02 | 0.02 | 90 | 1012.7 |
| 20260906011047 | 68 | 77 | 0.0 | 0.0 | 0.00 | 0.02 | 0.02 | 90 | 1012.6 |
| 20260906010945 | 68 | 77 | 0.0 | 0.0 | 0.00 | 0.02 | 0.02 | 90 | 1012.6 |
| 20260906010839 | 69 | 77 | 0.0 | 0.0 | 0.00 | 0.02 | 0.02 | 90 | 1012.6 |
| 20260906010519 | 69 | 77 | 0.0 | 0.0 | 0.00 | 0.02 | 0.02 | 90 | 1012.6 |
| 20260906010155 | 69 | 77 | 0.0 | 0.0 | 0.00 | 0.02 | 0.02 | 90 | 1012.6 |
| 20260906010050 | 69 | 77 | 0.0 | 0.0 | 0.00 | 0.02 | 0.02 | 90 | 1012.5 |
| 20260906005948 | 69 | 77 | 0.0 | 0.0 | 0.00 | 0.02 | 0.02 | 89 | 1012.5 |
| 20260906005844 | 69 | 77 | 0.0 | 0.0 | 0.00 | 0.02 | 0.02 | 89 | 1012.5 |
| 20260906005740 | 69 | 77 | 0.0 | 0.0 | 0.00 | 0.02 | 0.02 | 89 | 1012.5 |
| 20260906005634 | 69 | 77 | 0.0 | 0.0 | 0.00 | 0.02 | 0.02 | 89 | 1012.5 |
| 20260906005531 | 69 | 77 | 0.0 | 0.0 | 0.00 | 0.02 | 0.02 | 89 | 1012.5 |
| 20260906005424 | 69 | 77 | 0.0 | 0.0 | 0.00 | 0.02 | 0.02 | 89 | 1012.4 |
| 20260906005321 | 69 | 77 | 0.0 | 0.0 | 0.00 | 0.02 | 0.02 | 89 | 1012.4 |
| 20260906004954 | 70 | 77 | 0.0 | 0.0 | 0.00 | 0.02 | 0.02 | 89 | 1012.3 |
| 20260906004849 | 70 | 77 | 0.0 | 0.0 | 0.00 | 0.02 | 0.02 | 89 | 1012.4 |
| 20260906004747 | 70 | 77 | 0.0 | 0.0 | 0.00 | 0.02 | 0.02 | 89 | 1012.4 |
| 20260906004643 | 70 | 77 | 0.0 | 0.0 | 0.00 | 0.02 | 0.02 | 89 | 1012.3 |
| 20260906004536 | 70 | 77 | 0.0 | 0.0 | 0.00 | 0.02 | 0.02 | 89 | 1012.3 |
| 20260906004432 | 70 | 77 | 0.0 | 0.0 | 0.00 | 0.02 | 0.02 | 89 | 1012.4 |
| 20260906004329 | 70 | 77 | 0.0 | 0.0 | 0.00 | 0.02 | 0.02 | 89 | 1012.4 |
| 20260906004226 | 70 | 77 | 0.0 | 0.0 | 0.00 | 0.02 | 0.02 | 88 | 1012.3 |
| 20260906004124 | 70 | 77 | 0.0 | 0.0 | 0.00 | 0.02 | 0.02 | 88 | 1012.3 |
| 20260906004020 | 70 | 77 | 0.0 | 0.0 | 0.00 | 0.02 | 0.02 | 88 | 1012.3 |
| 20260906003917 | 70 | 77 | 0.0 | 0.0 | 0.00 | 0.02 | 0.02 | 88 | 1012.3 |
| 20260906003815 | 70 | 77 | 0.0 | 0.0 | 0.00 | 0.02 | 0.02 | 88 | 1012.3 |
| 20260906003711 | 70 | 77 | 0.0 | 0.0 | 0.00 | 0.02 | 0.02 | 88 | 1012.4 |
| 20260906003603 | 70 | 77 | 0.0 | 0.0 | 0.00 | 0.02 | 0.02 | 88 | 1012.3 |
| 20260906003500 | 70 | 77 | 0.0 | 0.0 | 0.00 | 0.02 | 0.02 | 88 | 1012.3 |
| 20260906003357 | 70 | 77 | 0.0 | 0.0 | 0.00 | 0.02 | 0.02 | 88 | 1012.3 |
| 20260906003254 | 70 | 77 | 0.0 | 0.0 | 0.00 | 0.02 | 0.02 | 88 | 1012.3 |
| 20260906002927 | 71 | 77 | 0.0 | 0.0 | 0.00 | 0.02 | 0.02 | 88 | 1012.2 |
| 20260906002823 | 71 | 77 | 0.0 | 0.0 | 0.00 | 0.02 | 0.02 | 88 | 1012.2 |
| 20260906002718 | 71 | 77 | 0.0 | 0.0 | 0.00 | 0.02 | 0.02 | 88 | 1012.2 |
| 20260906002616 | 71 | 77 | 0.0 | 0.0 | 0.00 | 0.02 | 0.02 | 88 | 1012.2 |
| 20260906002510 | 71 | 77 | 0.0 | 0.0 | 0.00 | 0.02 | 0.02 | 88 | 1012.2 |
| 20260906002403 | 71 | 77 | 0.0 | 0.0 | 0.00 | 0.02 | 0.02 | 88 | 1012.1 |
| 20260906002257 | 71 | 77 | 0.0 | 0.0 | 0.00 | 0.02 | 0.02 | 87 | 1012.1 |
| 20260906002152 | 71 | 77 | 0.0 | 0.0 | 0.00 | 0.02 | 0.02 | 87 | 1012.2 |
| 20260906002046 | 71 | 77 | 0.0 | 0.0 | 0.00 | 0.02 | 0.02 | 87 | 1012.1 |
| 20260906001943 | 71 | 77 | 0.0 | 0.0 | 0.00 | 0.02 | 0.02 | 87 | 1012.1 |
| 20260906001840 | 71 | 77 | 0.0 | 0.0 | 0.00 | 0.02 | 0.02 | 87 | 1012.1 |
| 20260906001735 | 71 | 77 | 0.0 | 0.0 | 0.00 | 0.02 | 0.02 | 86 | 1012.1 |
| 20260906001627 | 71 | 77 | 0.0 | 0.0 | 0.00 | 0.02 | 0.02 | 86 | 1012.1 |
| 20260906001303 | 72 | 77 | 0.0 | 0.0 | 0.00 | 0.02 | 0.02 | 86 | 1012.0 |
| 20260906001158 | 72 | 77 | 0.0 | 0.0 | 0.00 | 0.02 | 0.02 | 86 | 1012.0 |
| 20260906001053 | 72 | 77 | 0.0 | 0.0 | 0.00 | 0.02 | 0.02 | 87 | 1012.0 |
| 20260906000729 | 72 | 78 | 0.0 | 0.0 | 0.00 | 0.02 | 0.02 | 87 | 1011.9 |
| 20260906000624 | 72 | 78 | 0.0 | 0.0 | 0.00 | 0.02 | 0.02 | 86 | 1012.0 |
| 20260906000303 | 72 | 78 | 0.0 | 0.0 | 0.00 | 0.02 | 0.02 | 86 | 1012.0 |
| 20260906000158 | 72 | 78 | 0.0 | 0.0 | 0.00 | 0.02 | 0.02 | 86 | 1012.0 |
| 20260906000054 | 72 | 78 | 0.0 | 0.0 | 0.00 | 0.02 | 0.02 | 86 | 1012.0 |
| 20260905235952 | 72 | 78 | 0.0 | 0.0 | 0.00 | 0.02 | 0.02 | 86 | 1012.0 |
| 20260905235847 | 73 | 78 | 0.0 | 0.0 | 0.00 | 0.02 | 0.02 | 86 | 1012.0 |
| 20260905235744 | 73 | 78 | 0.0 | 0.0 | 0.00 | 0.02 | 0.02 | 86 | 1012.0 |
| 20260905235637 | 73 | 78 | 0.0 | 0.0 | 0.00 | 0.02 | 0.02 | 86 | 1012.0 |
| 20260905235312 | 73 | 78 | 0.0 | 0.0 | 0.00 | 0.02 | 0.02 | 86 | 1011.9 |
| 20260905235206 | 73 | 78 | 0.0 | 0.0 | 0.00 | 0.02 | 0.02 | 86 | 1011.9 |
| 20260905235101 | 73 | 78 | 0.0 | 0.0 | 0.00 | 0.02 | 0.02 | 86 | 1011.8 |
| 20260905234959 | 73 | 78 | 0.0 | 0.0 | 0.00 | 0.02 | 0.02 | 86 | 1011.9 |
| 20260905234855 | 73 | 78 | 0.0 | 0.0 | 0.00 | 0.02 | 0.02 | 87 | 1011.8 |
| 20260905234748 | 73 | 78 | 0.0 | 0.0 | 0.00 | 0.02 | 0.02 | 87 | 1011.9 |
| 20260905234640 | 73 | 78 | 0.0 | 0.0 | 0.00 | 0.02 | 0.02 | 87 | 1011.9 |
| 20260905234533 | 73 | 78 | 0.0 | 0.0 | 0.00 | 0.02 | 0.02 | 87 | 1011.9 |
| 20260905234429 | 74 | 78 | 0.0 | 0.0 | 0.00 | 0.02 | 0.02 | 87 | 1011.9 |
| 20260905234100 | 74 | 78 | 0.0 | 0.0 | 0.00 | 0.02 | 0.02 | 87 | 1012.0 |
| 20260905233954 | 74 | 78 | 0.0 | 0.0 | 0.00 | 0.02 | 0.02 | 87 | 1011.9 |
| 20260905233851 | 74 | 78 | 0.0 | 0.0 | 0.00 | 0.02 | 0.02 | 86 | 1011.9 |
| 20260905233744 | 74 | 78 | 0.0 | 0.0 | 0.00 | 0.02 | 0.02 | 86 | 1011.9 |
| 20260905233640 | 74 | 78 | 0.0 | 0.0 | 0.00 | 0.02 | 0.02 | 86 | 1012.0 |
| 20260905233537 | 74 | 78 | 0.0 | 0.0 | 0.00 | 0.02 | 0.02 | 86 | 1012.0 |
| 20260905233430 | 74 | 78 | 0.0 | 0.0 | 0.00 | 0.02 | 0.02 | 86 | 1012.0 |
| 20260905233327 | 74 | 78 | 0.0 | 0.0 | 0.00 | 0.02 | 0.02 | 86 | 1012.0 |
| 20260905233225 | 74 | 78 | 0.0 | 0.0 | 0.00 | 0.02 | 0.02 | 85 | 1012.0 |
| 20260905232857 | 74 | 78 | 0.0 | 0.0 | 0.00 | 0.02 | 0.02 | 85 | 1012.0 |
| 20260905232755 | 74 | 78 | 0.0 | 0.0 | 0.00 | 0.02 | 0.02 | 85 | 1012.0 |
| 20260905232651 | 74 | 78 | 0.0 | 0.0 | 0.00 | 0.02 | 0.02 | 84 | 1012.0 |
| 20260905232548 | 74 | 78 | 0.0 | 0.0 | 0.00 | 0.02 | 0.02 | 84 | 1012.0 |
| 20260905232442 | 74 | 78 | 0.0 | 0.0 | 0.00 | 0.02 | 0.02 | 83 | 1012.0 |
| 20260905232338 | 75 | 78 | 0.0 | 0.0 | 0.00 | 0.02 | 0.02 | 83 | 1012.0 |
| 20260905232233 | 75 | 78 | 0.0 | 0.0 | 0.00 | 0.02 | 0.02 | 84 | 1012.0 |
| 20260905231907 | 75 | 78 | 0.0 | 0.0 | 0.00 | 0.02 | 0.02 | 83 | 1011.9 |
| 20260905231803 | 75 | 78 | 0.0 | 0.0 | 0.00 | 0.02 | 0.02 | 84 | 1011.9 |
| 20260905231658 | 75 | 78 | 0.0 | 0.0 | 0.00 | 0.02 | 0.02 | 84 | 1012.0 |
| 20260905231555 | 75 | 78 | 0.0 | 0.0 | 0.00 | 0.02 | 0.02 | 83 | 1011.9 |
| 20260905231451 | 75 | 78 | 0.0 | 0.0 | 0.00 | 0.02 | 0.02 | 83 | 1011.9 |
| 20260905231345 | 75 | 78 | 0.0 | 0.0 | 0.00 | 0.02 | 0.02 | 83 | 1011.9 |
| 20260905231239 | 75 | 78 | 0.0 | 0.0 | 0.00 | 0.02 | 0.02 | 83 | 1011.9 |
| 20260905230911 | 75 | 78 | 0.0 | 0.0 | 0.00 | 0.02 | 0.02 | 83 | 1011.9 |
| 20260905230550 | 75 | 78 | 0.0 | 0.0 | 0.00 | 0.02 | 0.02 | 83 | 1011.8 |
| 20260905230445 | 75 | 78 | 0.0 | 0.0 | 0.00 | 0.02 | 0.02 | 83 | 1011.8 |
| 20260905230340 | 75 | 78 | 0.0 | 0.0 | 0.00 | 0.02 | 0.02 | 83 | 1011.8 |
| 20260905230232 | 75 | 78 | 0.0 | 0.0 | 0.00 | 0.02 | 0.02 | 83 | 1011.8 |
| 20260905230125 | 75 | 78 | 0.0 | 0.0 | 0.00 | 0.02 | 0.02 | 83 | 1011.8 |
| 20260905230022 | 75 | 78 | 0.0 | 0.0 | 0.00 | 0.02 | 0.02 | 83 | 1011.7 |
| 20260905225916 | 75 | 78 | 0.0 | 0.0 | 0.00 | 0.02 | 0.02 | 83 | 1011.7 |
| 20260905225551 | 75 | 78 | 0.0 | 0.0 | 0.00 | 0.02 | 0.02 | 82 | 1011.8 |
| 20260905225444 | 75 | 78 | 0.0 | 0.0 | 0.00 | 0.02 | 0.02 | 82 | 1011.8 |
| 20260905225342 | 75 | 78 | 0.0 | 0.0 | 0.00 | 0.02 | 0.02 | 82 | 1011.8 |
| 20260905225237 | 75 | 78 | 0.0 | 0.0 | 0.00 | 0.02 | 0.02 | 82 | 1011.8 |
| 20260905225131 | 75 | 78 | 0.0 | 0.0 | 0.00 | 0.02 | 0.02 | 82 | 1011.8 |
| 20260905225024 | 75 | 78 | 0.0 | 0.0 | 0.00 | 0.02 | 0.02 | 82 | 1011.8 |
| 20260905224918 | 75 | 78 | 0.0 | 0.0 | 0.00 | 0.02 | 0.02 | 81 | 1011.8 |
| 20260905224813 | 75 | 78 | 0.0 | 0.0 | 0.00 | 0.02 | 0.02 | 81 | 1011.8 |
| 20260905224706 | 75 | 78 | 0.0 | 0.0 | 0.00 | 0.02 | 0.02 | 81 | 1011.8 |
| 20260905224559 | 75 | 78 | 0.0 | 0.0 | 0.00 | 0.02 | 0.02 | 81 | 1011.8 |
| 20260905224457 | 75 | 78 | 0.0 | 0.0 | 0.00 | 0.02 | 0.02 | 81 | 1011.8 |
| 20260905224355 | 75 | 78 | 0.0 | 0.0 | 0.00 | 0.02 | 0.02 | 81 | 1011.8 |
| 20260905224250 | 75 | 78 | 0.0 | 0.0 | 0.00 | 0.02 | 0.02 | 82 | 1011.8 |
| 20260905224149 | 75 | 78 | 0.0 | 0.0 | 0.00 | 0.02 | 0.02 | 82 | 1011.9 |
| 20260905224041 | 75 | 78 | 0.0 | 0.0 | 0.00 | 0.02 | 0.02 | 81 | 1011.8 |
| 20260905223937 | 75 | 78 | 0.0 | 0.0 | 0.00 | 0.02 | 0.02 | 81 | 1011.8 |
| 20260905223833 | 75 | 78 | 0.0 | 0.0 | 0.00 | 0.02 | 0.02 | 81 | 1011.8 |
| 20260905223504 | 75 | 78 | 0.0 | 0.0 | 0.00 | 0.02 | 0.02 | 81 | 1011.8 |
| 20260905223358 | 75 | 78 | 0.0 | 0.0 | 0.00 | 0.02 | 0.02 | 80 | 1011.8 |
| 20260905223250 | 76 | 78 | 0.0 | 0.0 | 0.00 | 0.02 | 0.02 | 80 | 1011.8 |
| 20260905223146 | 76 | 78 | 0.0 | 0.0 | 0.00 | 0.02 | 0.02 | 80 | 1011.8 |
| 20260905223041 | 76 | 78 | 0.0 | 0.0 | 0.00 | 0.02 | 0.02 | 80 | 1011.8 |
| 20260905222938 | 76 | 78 | 0.0 | 0.0 | 0.00 | 0.02 | 0.02 | 80 | 1011.8 |
| 20260905222835 | 76 | 78 | 0.0 | 0.0 | 0.00 | 0.02 | 0.02 | 79 | 1011.8 |
| 20260905222511 | 76 | 78 | 0.0 | 0.0 | 0.00 | 0.02 | 0.02 | 79 | 1011.8 |
| 20260905222404 | 76 | 78 | 0.0 | 0.0 | 0.00 | 0.02 | 0.02 | 78 | 1011.8 |
| 20260905222258 | 76 | 78 | 0.0 | 0.0 | 0.00 | 0.02 | 0.02 | 78 | 1011.7 |
| 20260905222151 | 76 | 78 | 0.0 | 0.0 | 0.00 | 0.02 | 0.02 | 78 | 1011.8 |
| 20260905222049 | 76 | 78 | 0.0 | 0.0 | 0.00 | 0.02 | 0.02 | 77 | 1011.7 |
| 20260905221942 | 76 | 78 | 0.0 | 0.0 | 0.00 | 0.02 | 0.02 | 77 | 1011.7 |
| 20260905221616 | 76 | 78 | 0.0 | 0.0 | 0.00 | 0.02 | 0.02 | 76 | 1011.6 |
| 20260905221508 | 76 | 78 | 0.0 | 0.0 | 0.00 | 0.02 | 0.02 | 76 | 1011.6 |
| 20260905221403 | 76 | 78 | 0.0 | 0.0 | 0.00 | 0.02 | 0.02 | 77 | 1011.6 |
| 20260905221257 | 76 | 78 | 0.0 | 0.0 | 0.00 | 0.02 | 0.02 | 76 | 1011.6 |
| 20260905221154 | 76 | 78 | 0.0 | 0.0 | 0.00 | 0.02 | 0.02 | 77 | 1011.6 |
| 20260905220823 | 76 | 78 | 0.0 | 0.0 | 0.00 | 0.02 | 0.02 | 76 | 1011.6 |
| 20260905220719 | 76 | 78 | 0.0 | 0.0 | 0.00 | 0.02 | 0.02 | 76 | 1011.6 |
| 20260905220612 | 76 | 69 | 0.0 | 0.0 | 0.00 | 0.02 | 0.02 | 76 | 1011.6 |
| 20260905220508 | 76 | 69 | 0.0 | 0.0 | 0.00 | 0.02 | 0.02 | 76 | 1011.5 |
| 20260905220403 | 76 | 69 | 0.0 | 0.0 | 0.00 | 0.02 | 0.02 | 76 | 1011.5 |
| 20260905220259 | 76 | 69 | 0.0 | 0.0 | 0.00 | 0.02 | 0.02 | 76 | 1011.4 |
| 20260905220157 | 76 | 69 | 0.0 | 0.0 | 0.00 | 0.02 | 0.02 | 76 | 1011.4 |
| 20260905220054 | 76 | 68 | 0.0 | 0.0 | 0.00 | 0.02 | 0.02 | 75 | 1011.5 |
| 20260905215948 | 76 | 68 | 0.0 | 0.0 | 0.00 | 0.02 | 0.02 | 75 | 1011.5 |
| 20260905215841 | 76 | 68 | 0.0 | 0.0 | 0.00 | 0.02 | 0.02 | 74 | 1011.5 |
| 20260905215739 | 76 | 68 | 0.0 | 0.0 | 0.00 | 0.02 | 0.02 | 74 | 1011.5 |
| 20260905215632 | 76 | 68 | 0.0 | 0.0 | 0.00 | 0.02 | 0.02 | 74 | 1011.5 |
| 20260905215529 | 76 | 68 | 0.0 | 0.0 | 0.00 | 0.02 | 0.02 | 73 | 1011.5 |
| 20260905215426 | 77 | 68 | 0.0 | 0.0 | 0.00 | 0.02 | 0.02 | 74 | 1011.5 |
| 20260905215057 | 77 | 68 | 0.0 | 0.0 | 0.00 | 0.02 | 0.02 | 74 | 1011.4 |
| 20260905214951 | 77 | 67 | 0.0 | 0.0 | 0.00 | 0.02 | 0.02 | 75 | 1011.4 |
| 20260905214847 | 77 | 67 | 0.0 | 0.0 | 0.00 | 0.02 | 0.02 | 76 | 1011.4 |
| 20260905214523 | 76 | 67 | 0.0 | 0.0 | 0.00 | 0.02 | 0.02 | 74 | 1011.4 |
| 20260905214421 | 76 | 67 | 0.0 | 0.0 | 0.00 | 0.02 | 0.02 | 75 | 1011.4 |
| 20260905214318 | 76 | 67 | 0.0 | 0.0 | 0.00 | 0.02 | 0.02 | 74 | 1011.4 |
| 20260905214213 | 76 | 67 | 0.0 | 0.0 | 0.00 | 0.02 | 0.02 | 74 | 1011.4 |
| 20260905214106 | 76 | 67 | 0.0 | 0.0 | 0.00 | 0.02 | 0.02 | 74 | 1011.4 |
| 20260905214003 | 76 | 67 | 0.0 | 0.0 | 0.00 | 0.02 | 0.02 | 73 | 1011.4 |
| 20260905213857 | 76 | 67 | 0.0 | 0.0 | 0.00 | 0.02 | 0.02 | 75 | 1011.4 |
| 20260905213754 | 76 | 67 | 0.0 | 0.0 | 0.00 | 0.02 | 0.02 | 74 | 1011.4 |
| 20260905213646 | 76 | 67 | 0.0 | 0.0 | 0.00 | 0.02 | 0.02 | 74 | 1011.4 |
| 20260905213543 | 76 | 67 | 0.0 | 0.0 | 0.00 | 0.02 | 0.02 | 74 | 1011.4 |
| 20260905213436 | 76 | 67 | 0.0 | 0.0 | 0.00 | 0.02 | 0.02 | 74 | 1011.3 |
| 20260905213333 | 76 | 67 | 0.0 | 0.0 | 0.00 | 0.02 | 0.02 | 74 | 1011.4 |
| 20260905213227 | 76 | 67 | 0.0 | 0.0 | 0.00 | 0.02 | 0.02 | 74 | 1011.3 |
| 20260905213121 | 76 | 68 | 0.0 | 0.0 | 0.00 | 0.02 | 0.02 | 74 | 1011.4 |
| 20260905213018 | 76 | 70 | 0.0 | 0.0 | 0.00 | 0.02 | 0.02 | 74 | 1011.4 |
| 20260905212911 | 76 | 71 | 0.0 | 0.0 | 0.00 | 0.02 | 0.02 | 74 | 1011.5 |
| 20260905212807 | 76 | 71 | 0.0 | 0.0 | 0.00 | 0.02 | 0.02 | 75 | 1011.5 |
| 20260905212702 | 76 | 71 | 0.0 | 0.0 | 0.00 | 0.02 | 0.02 | 73 | 1011.5 |
| 20260905212554 | 76 | 71 | 0.0 | 0.0 | 0.00 | 0.02 | 0.02 | 73 | 1011.5 |
| 20260905212450 | 76 | 72 | 0.0 | 0.0 | 0.00 | 0.02 | 0.02 | 73 | 1011.5 |
| 20260905212343 | 76 | 72 | 0.0 | 0.0 | 0.00 | 0.02 | 0.02 | 74 | 1011.5 |
| 20260905212239 | 76 | 64 | 0.0 | 0.0 | 0.00 | 0.02 | 0.02 | 72 | 1011.5 |
| 20260905212132 | 76 | 46 | 0.0 | 0.0 | 0.00 | 0.02 | 0.02 | 73 | 1011.4 |
| 20260905212030 | 76 | 60 | 0.0 | 0.0 | 0.00 | 0.02 | 0.02 | 74 | 1011.5 |
| 20260905211921 | 76 | 67 | 0.0 | 0.0 | 0.00 | 0.02 | 0.02 | 75 | 1011.5 |
| 20260905211815 | 76 | 80 | 0.0 | 0.0 | 0.00 | 0.02 | 0.02 | 75 | 1011.5 |
| 20260905211709 | 76 | 17 | 0.0 | 0.0 | 0.00 | 0.02 | 0.02 | 74 | 1011.5 |
| 20260905211605 | 76 | 17 | 0.0 | 0.0 | 0.00 | 0.02 | 0.02 | 73 | 1011.5 |
| 20260905211458 | 76 | 18 | 0.0 | 0.0 | 0.00 | 0.02 | 0.02 | 74 | 1011.5 |
| 20260905211355 | 76 | 63 | 0.0 | 0.0 | 0.00 | 0.02 | 0.02 | 74 | 1011.4 |
| 20260905211251 | 76 | 63 | 0.0 | 0.0 | 0.00 | 0.02 | 0.02 | 75 | 1011.4 |
| 20260905211149 | 76 | 64 | 0.0 | 0.0 | 0.00 | 0.02 | 0.02 | 75 | 1011.5 |
| 20260905211043 | 76 | 68 | 0.0 | 0.0 | 0.00 | 0.02 | 0.02 | 74 | 1011.4 |
| 20260905210936 | 76 | 47 | 0.0 | 0.0 | 0.00 | 0.02 | 0.02 | 76 | 1011.5 |
| 20260905210829 | 76 | 30 | 0.0 | 0.0 | 0.00 | 0.02 | 0.02 | 75 | 1011.4 |
| 20260905210727 | 76 | 30 | 0.0 | 0.0 | 0.00 | 0.02 | 0.02 | 75 | 1011.5 |
| 20260905210401 | 76 | 30 | 0.0 | 0.0 | 0.00 | 0.02 | 0.02 | 75 | 1011.4 |
| 20260905205819 | 76 | 26 | 0.0 | 0.0 | 0.00 | 0.02 | 0.02 | 76 | 1011.4 |
| 20260905205716 | 76 | 18 | 0.0 | 0.0 | 0.00 | 0.02 | 0.02 | 76 | 1011.4 |
| 20260905205613 | 76 | 71 | 0.0 | 0.0 | 0.00 | 0.02 | 0.02 | 75 | 1011.4 |
| 20260905205509 | 76 | 71 | 0.0 | 0.0 | 0.00 | 0.02 | 0.02 | 76 | 1011.4 |
| 20260905205408 | 76 | 70 | 0.0 | 0.0 | 0.00 | 0.02 | 0.02 | 76 | 1011.5 |
| 20260905205306 | 76 | 70 | 0.0 | 0.0 | 0.00 | 0.02 | 0.02 | 76 | 1011.4 |
| 20260905205200 | 76 | 70 | 0.0 | 0.0 | 0.00 | 0.02 | 0.02 | 76 | 1011.4 |
| 20260905205054 | 76 | 70 | 0.0 | 0.0 | 0.00 | 0.02 | 0.02 | 76 | 1011.4 |
| 20260905204948 | 76 | 70 | 0.0 | 0.0 | 0.00 | 0.02 | 0.02 | 77 | 1011.4 |
| 20260905204842 | 76 | 70 | 0.0 | 0.0 | 0.00 | 0.02 | 0.02 | 77 | 1011.4 |
| 20260905204515 | 76 | 70 | 0.0 | 0.0 | 0.00 | 0.02 | 0.02 | 76 | 1011.4 |
| 20260905204407 | 76 | 71 | 0.0 | 0.0 | 0.00 | 0.02 | 0.02 | 76 | 1011.4 |
| 20260905204303 | 76 | 71 | 0.0 | 0.0 | 0.00 | 0.02 | 0.02 | 77 | 1011.4 |
| 20260905204158 | 76 | 71 | 0.0 | 0.0 | 0.00 | 0.02 | 0.02 | 76 | 1011.5 |
| 20260905204051 | 76 | 71 | 0.0 | 0.0 | 0.00 | 0.02 | 0.02 | 76 | 1011.5 |
| 20260905203944 | 76 | 69 | 0.0 | 0.0 | 0.00 | 0.02 | 0.02 | 76 | 1011.5 |
| 20260905203838 | 76 | 71 | 0.0 | 0.0 | 0.00 | 0.02 | 0.02 | 77 | 1011.5 |
| 20260905203510 | 76 | 72 | 0.0 | 0.0 | 0.00 | 0.02 | 0.02 | 76 | 1011.5 |
| 20260905203408 | 76 | 72 | 0.0 | 0.0 | 0.00 | 0.02 | 0.02 | 77 | 1011.5 |
| 20260905203304 | 76 | 81 | 0.0 | 0.0 | 0.00 | 0.02 | 0.02 | 77 | 1011.5 |
| 20260905202942 | 76 | 81 | 0.0 | 0.0 | 0.00 | 0.02 | 0.02 | 77 | 1011.6 |
| 20260905202840 | 76 | 81 | 0.0 | 0.0 | 0.00 | 0.02 | 0.02 | 77 | 1011.7 |
| 20260905202732 | 76 | 81 | 0.0 | 0.0 | 0.00 | 0.02 | 0.02 | 77 | 1011.7 |
| 20260905202628 | 76 | 81 | 0.0 | 0.0 | 0.00 | 0.02 | 0.02 | 76 | 1011.7 |
| 20260905202522 | 76 | 81 | 0.0 | 0.0 | 0.00 | 0.02 | 0.02 | 77 | 1011.7 |
| 20260905202418 | 76 | 81 | 0.0 | 0.0 | 0.00 | 0.02 | 0.02 | 76 | 1011.8 |
| 20260905202055 | 76 | 80 | 0.0 | 0.0 | 0.00 | 0.02 | 0.02 | 77 | 1011.7 |
| 20260905201949 | 76 | 80 | 0.0 | 0.0 | 0.00 | 0.02 | 0.02 | 78 | 1011.7 |
| 20260905201843 | 76 | 80 | 0.0 | 0.0 | 0.00 | 0.02 | 0.02 | 78 | 1011.7 |
| 20260905201741 | 76 | 80 | 0.0 | 0.0 | 0.00 | 0.02 | 0.02 | 77 | 1011.7 |
| 20260905201634 | 76 | 80 | 0.0 | 0.0 | 0.00 | 0.02 | 0.02 | 77 | 1011.7 |
| 20260905201313 | 76 | 80 | 0.0 | 0.0 | 0.00 | 0.02 | 0.02 | 76 | 1011.7 |
| 20260905201210 | 76 | 84 | 0.0 | 0.0 | 0.00 | 0.02 | 0.02 | 76 | 1011.7 |
| 20260905201106 | 76 | 84 | 0.0 | 0.0 | 0.00 | 0.02 | 0.02 | 76 | 1011.7 |
| 20260905201004 | 76 | 84 | 0.0 | 0.0 | 0.00 | 0.02 | 0.02 | 77 | 1011.7 |
| 20260905200857 | 76 | 88 | 0.0 | 0.0 | 0.00 | 0.02 | 0.02 | 77 | 1011.7 |
| 20260905200753 | 76 | 90 | 0.0 | 0.0 | 0.00 | 0.02 | 0.02 | 77 | 1011.7 |
| 20260905200647 | 76 | 89 | 0.0 | 0.0 | 0.00 | 0.02 | 0.02 | 77 | 1011.7 |
| 20260905200540 | 76 | 88 | 0.0 | 0.0 | 0.00 | 0.02 | 0.02 | 78 | 1011.8 |
| 20260905200435 | 76 | 89 | 0.0 | 0.0 | 0.00 | 0.02 | 0.02 | 77 | 1011.8 |
| 20260905200331 | 76 | 66 | 0.0 | 0.0 | 0.00 | 0.02 | 0.02 | 78 | 1011.8 |
| 20260905200224 | 76 | 62 | 0.0 | 0.0 | 0.00 | 0.02 | 0.02 | 78 | 1011.8 |
| 20260905200119 | 76 | 61 | 0.0 | 0.0 | 0.00 | 0.02 | 0.02 | 79 | 1011.8 |
| 20260905200012 | 75 | 61 | 0.0 | 0.0 | 0.00 | 0.02 | 0.02 | 77 | 1011.8 |
| 20260905195908 | 75 | 63 | 0.0 | 0.0 | 0.00 | 0.02 | 0.02 | 79 | 1011.8 |
| 20260905195805 | 75 | 62 | 0.0 | 0.0 | 0.00 | 0.02 | 0.02 | 79 | 1011.9 |
| 20260905195658 | 75 | 62 | 0.0 | 0.0 | 0.00 | 0.02 | 0.02 | 78 | 1011.9 |
| 20260905195556 | 75 | 62 | 0.0 | 0.0 | 0.00 | 0.02 | 0.02 | 77 | 1011.9 |
| 20260905195450 | 75 | 62 | 0.0 | 0.0 | 0.00 | 0.02 | 0.02 | 78 | 1011.9 |
| 20260905195345 | 75 | 62 | 0.0 | 0.0 | 0.00 | 0.02 | 0.02 | 78 | 1011.9 |
| 20260905195021 | 75 | 49 | 0.0 | 0.0 | 0.00 | 0.02 | 0.02 | 77 | 1011.9 |
| 20260905194919 | 75 | 49 | 0.0 | 0.0 | 0.00 | 0.02 | 0.02 | 76 | 1011.9 |
| 20260905194816 | 75 | 49 | 0.0 | 0.0 | 0.00 | 0.02 | 0.02 | 77 | 1011.9 |
| 20260905194710 | 75 | 48 | 0.0 | 0.0 | 0.00 | 0.02 | 0.02 | 77 | 1011.9 |
| 20260905194606 | 75 | 57 | 0.0 | 0.0 | 0.00 | 0.02 | 0.02 | 78 | 1011.9 |
| 20260905194501 | 75 | 57 | 0.0 | 0.0 | 0.00 | 0.02 | 0.02 | 78 | 1011.9 |
| 20260905194354 | 75 | 57 | 0.0 | 0.0 | 0.00 | 0.02 | 0.02 | 78 | 1011.9 |
| 20260905194248 | 75 | 57 | 0.0 | 0.0 | 0.00 | 0.02 | 0.02 | 77 | 1011.9 |
| 20260905194144 | 75 | 57 | 0.0 | 0.0 | 0.00 | 0.02 | 0.02 | 78 | 1011.9 |
| 20260905194041 | 75 | 57 | 0.0 | 0.0 | 0.00 | 0.02 | 0.02 | 78 | 1011.9 |
| 20260905193940 | 75 | 57 | 0.0 | 0.0 | 0.00 | 0.02 | 0.02 | 78 | 1011.9 |
| 20260905193834 | 75 | 57 | 0.0 | 0.0 | 0.00 | 0.02 | 0.02 | 78 | 1011.9 |
| 20260905193731 | 75 | 57 | 0.0 | 0.0 | 0.00 | 0.02 | 0.02 | 78 | 1011.9 |
| 20260905193627 | 75 | 57 | 0.0 | 0.0 | 0.00 | 0.02 | 0.02 | 77 | 1011.9 |
| 20260905193525 | 75 | 57 | 0.0 | 0.0 | 0.00 | 0.02 | 0.02 | 80 | 1011.9 |
| 20260905193420 | 75 | 83 | 0.0 | 0.0 | 0.00 | 0.02 | 0.02 | 80 | 1012.0 |
| 20260905193317 | 75 | 98 | 0.0 | 0.0 | 0.00 | 0.02 | 0.02 | 81 | 1011.9 |
| 20260905193212 | 75 | 98 | 0.0 | 0.0 | 0.00 | 0.02 | 0.02 | 81 | 1012.0 |
| 20260905193106 | 75 | 98 | 0.0 | 0.0 | 0.00 | 0.02 | 0.02 | 81 | 1011.9 |
| 20260905193001 | 75 | 98 | 0.0 | 0.0 | 0.00 | 0.02 | 0.02 | 81 | 1011.9 |
| 20260905192858 | 75 | 98 | 0.0 | 0.0 | 0.00 | 0.02 | 0.02 | 81 | 1011.9 |
| 20260905192752 | 75 | 98 | 0.0 | 0.0 | 0.00 | 0.02 | 0.02 | 81 | 1011.9 |
| 20260905192426 | 75 | 98 | 0.0 | 0.0 | 0.00 | 0.02 | 0.02 | 81 | 1011.8 |
| 20260905192322 | 75 | 98 | 0.0 | 0.0 | 0.00 | 0.02 | 0.02 | 80 | 1011.8 |
| 20260905192217 | 75 | 98 | 0.0 | 0.0 | 0.00 | 0.02 | 0.02 | 81 | 1011.8 |
| 20260905192113 | 75 | 98 | 0.0 | 0.0 | 0.00 | 0.02 | 0.02 | 81 | 1011.8 |
| 20260905191749 | 75 | 98 | 0.0 | 0.0 | 0.00 | 0.02 | 0.02 | 80 | 1011.9 |
| 20260905191646 | 75 | 98 | 0.0 | 0.0 | 0.00 | 0.02 | 0.02 | 80 | 1011.9 |
| 20260905191540 | 75 | 98 | 0.0 | 0.0 | 0.00 | 0.02 | 0.02 | 80 | 1011.9 |
| 20260905191435 | 75 | 98 | 0.0 | 0.0 | 0.00 | 0.02 | 0.02 | 81 | 1011.9 |
| 20260905191333 | 75 | 98 | 0.0 | 0.0 | 0.00 | 0.02 | 0.02 | 81 | 1012.0 |
| 20260905191226 | 74 | 98 | 0.0 | 0.0 | 0.00 | 0.02 | 0.02 | 80 | 1012.0 |
| 20260905190903 | 74 | 98 | 0.0 | 0.0 | 0.00 | 0.02 | 0.02 | 80 | 1012.0 |
| 20260905190759 | 75 | 98 | 0.0 | 0.0 | 0.00 | 0.02 | 0.02 | 79 | 1012.0 |
| 20260905190440 | 75 | 67 | 0.0 | 0.0 | 0.00 | 0.02 | 0.02 | 79 | 1012.0 |
| 20260905190335 | 75 | 68 | 0.0 | 0.0 | 0.00 | 0.02 | 0.02 | 80 | 1012.0 |
| 20260905190229 | 75 | 68 | 0.0 | 0.0 | 0.00 | 0.02 | 0.02 | 80 | 1012.0 |
| 20260905190124 | 75 | 57 | 0.0 | 0.0 | 0.00 | 0.02 | 0.02 | 81 | 1012.0 |
| 20260905190021 | 75 | 57 | 0.0 | 0.0 | 0.00 | 0.02 | 0.02 | 80 | 1012.0 |
| 20260905185915 | 75 | 57 | 0.0 | 0.0 | 0.00 | 0.02 | 0.02 | 80 | 1012.0 |
| 20260905185809 | 74 | 57 | 0.0 | 0.0 | 0.00 | 0.02 | 0.02 | 80 | 1012.0 |
| 20260905185706 | 74 | 57 | 0.0 | 0.0 | 0.00 | 0.02 | 0.02 | 81 | 1012.0 |
| 20260905185344 | 74 | 59 | 0.0 | 0.0 | 0.00 | 0.02 | 0.02 | 80 | 1012.0 |
| 20260905185017 | 74 | 59 | 0.0 | 0.0 | 0.00 | 0.02 | 0.02 | 80 | 1012.0 |
| 20260905184913 | 74 | 59 | 0.0 | 0.0 | 0.00 | 0.02 | 0.02 | 80 | 1012.0 |
| 20260905184809 | 74 | 54 | 0.0 | 0.0 | 0.00 | 0.02 | 0.02 | 80 | 1012.0 |
| 20260905184707 | 74 | 54 | 0.0 | 0.0 | 0.00 | 0.02 | 0.02 | 80 | 1012.1 |
| 20260905184605 | 74 | 54 | 0.0 | 0.0 | 0.00 | 0.02 | 0.02 | 81 | 1012.1 |
| 20260905184502 | 74 | 54 | 0.0 | 0.0 | 0.00 | 0.02 | 0.02 | 80 | 1012.1 |
| 20260905184138 | 74 | 54 | 0.0 | 0.0 | 0.00 | 0.02 | 0.02 | 80 | 1012.1 |
| 20260905183814 | 74 | 54 | 0.0 | 0.0 | 0.00 | 0.02 | 0.02 | 80 | 1012.2 |
| 20260905183711 | 74 | 54 | 0.0 | 0.0 | 0.00 | 0.02 | 0.02 | 80 | 1012.2 |
| 20260905183607 | 74 | 54 | 0.0 | 0.0 | 0.00 | 0.02 | 0.02 | 80 | 1012.2 |
| 20260905183502 | 74 | 54 | 0.0 | 0.0 | 0.00 | 0.02 | 0.02 | 80 | 1012.2 |
| 20260905183357 | 74 | 54 | 0.0 | 0.0 | 0.00 | 0.02 | 0.02 | 80 | 1012.2 |
| 20260905183251 | 74 | 54 | 0.0 | 0.0 | 0.00 | 0.02 | 0.02 | 80 | 1012.2 |
| 20260905183148 | 74 | 53 | 0.0 | 0.0 | 0.00 | 0.02 | 0.02 | 80 | 1012.2 |
| 20260905183046 | 74 | 53 | 0.0 | 0.0 | 0.00 | 0.02 | 0.02 | 80 | 1012.2 |
| 20260905182942 | 74 | 53 | 0.0 | 0.0 | 0.00 | 0.02 | 0.02 | 80 | 1012.2 |
| 20260905182613 | 74 | 55 | 0.0 | 0.0 | 0.00 | 0.03 | 0.02 | 80 | 1012.2 |
| 20260905182505 | 74 | 51 | 0.0 | 0.0 | 0.00 | 0.03 | 0.02 | 80 | 1012.2 |
| 20260905182138 | 74 | 46 | 0.0 | 0.0 | 0.00 | 0.03 | 0.02 | 81 | 1012.2 |
| 20260905182033 | 74 | 46 | 0.0 | 0.0 | 0.00 | 0.03 | 0.02 | 81 | 1012.2 |
| 20260905181712 | 74 | 65 | 0.0 | 0.0 | 0.00 | 0.04 | 0.02 | 81 | 1012.2 |
| 20260905181609 | 73 | 65 | 0.0 | 0.0 | 0.00 | 0.04 | 0.02 | 81 | 1012.2 |
| 20260905181245 | 73 | 63 | 0.0 | 0.0 | 0.00 | 0.04 | 0.02 | 80 | 1012.2 |
| 20260905181140 | 73 | 63 | 0.0 | 0.0 | 0.00 | 0.04 | 0.02 | 80 | 1012.2 |
| 20260905181033 | 73 | 63 | 0.0 | 0.0 | 0.00 | 0.04 | 0.02 | 80 | 1012.2 |
| 20260905180928 | 73 | 61 | 0.0 | 3.0 | 0.00 | 0.04 | 0.02 | 81 | 1012.2 |
| 20260905180825 | 73 | 61 | 0.0 | 3.0 | 0.00 | 0.04 | 0.02 | 80 | 1012.2 |
| 20260905180718 | 73 | 67 | 0.0 | 0.0 | 0.00 | 0.04 | 0.02 | 80 | 1012.2 |
| 20260905180612 | 73 | 67 | 0.0 | 0.0 | 0.00 | 0.04 | 0.02 | 81 | 1012.1 |
| 20260905180507 | 73 | 67 | 0.0 | 2.0 | 0.00 | 0.04 | 0.02 | 81 | 1012.1 |
| 20260905180405 | 73 | 66 | 0.0 | 2.0 | 0.00 | 0.04 | 0.02 | 82 | 1012.2 |
| 20260905180302 | 73 | 63 | 0.0 | 0.0 | 0.00 | 0.04 | 0.02 | 82 | 1012.2 |
| 20260905180159 | 73 | 71 | 0.0 | 0.0 | 0.00 | 0.04 | 0.02 | 81 | 1012.2 |
| 20260905180056 | 73 | 74 | 0.0 | 0.0 | 0.00 | 0.04 | 0.02 | 82 | 1012.2 |
| 20260905175953 | 73 | 74 | 0.0 | 0.0 | 0.00 | 0.04 | 0.02 | 81 | 1012.2 |
| 20260905175846 | 73 | 74 | 0.0 | 0.0 | 0.00 | 0.04 | 0.02 | 81 | 1012.2 |
| 20260905175520 | 73 | 86 | 0.0 | 0.0 | 0.00 | 0.04 | 0.02 | 81 | 1012.2 |
| 20260905175415 | 73 | 86 | 0.0 | 0.0 | 0.00 | 0.04 | 0.02 | 81 | 1012.3 |
| 20260905175312 | 73 | 87 | 0.0 | 0.0 | 0.00 | 0.04 | 0.02 | 81 | 1012.3 |
| 20260905174949 | 73 | 80 | 1.0 | 0.0 | 0.00 | 0.04 | 0.02 | 81 | 1012.2 |
| 20260905174843 | 72 | 81 | 2.0 | 8.0 | 0.00 | 0.04 | 0.02 | 80 | 1012.2 |
| 20260905174739 | 72 | 121 | 2.0 | 8.0 | 0.00 | 0.04 | 0.02 | 80 | 1012.2 |
| 20260905174634 | 72 | 77 | 2.0 | 8.0 | 0.00 | 0.04 | 0.02 | 80 | 1012.2 |
| 20260905174308 | 72 | 70 | 2.0 | 8.0 | 0.00 | 0.04 | 0.02 | 81 | 1012.1 |
| 20260905174204 | 72 | 101 | 2.0 | 8.0 | 0.00 | 0.04 | 0.02 | 81 | 1012.1 |
| 20260905174100 | 72 | 38 | 1.0 | 8.0 | 0.00 | 0.04 | 0.02 | 81 | 1012.2 |
| 20260905173954 | 72 | 86 | 1.0 | 8.0 | 0.00 | 0.04 | 0.02 | 80 | 1012.2 |
| 20260905173852 | 72 | 77 | 1.0 | 8.0 | 0.00 | 0.04 | 0.02 | 81 | 1012.2 |
| 20260905173749 | 72 | 69 | 0.0 | 8.0 | 0.00 | 0.04 | 0.02 | 81 | 1012.2 |
| 20260905173644 | 72 | 81 | 0.0 | 6.0 | 0.00 | 0.04 | 0.02 | 82 | 1012.2 |
| 20260905173540 | 72 | 36 | 0.0 | 4.0 | 0.00 | 0.04 | 0.02 | 82 | 1012.2 |
| 20260905173436 | 72 | 48 | 0.0 | 3.0 | 0.00 | 0.04 | 0.02 | 82 | 1012.2 |
| 20260905173331 | 72 | 75 | 0.0 | 3.0 | 0.00 | 0.04 | 0.02 | 82 | 1012.2 |
| 20260905173225 | 72 | 60 | 0.0 | 0.0 | 0.00 | 0.04 | 0.02 | 84 | 1012.2 |
| 20260905173117 | 72 | 62 | 0.0 | 0.0 | 0.00 | 0.04 | 0.02 | 84 | 1012.2 |
| 20260905173012 | 72 | 63 | 0.0 | 0.0 | 0.00 | 0.04 | 0.02 | 84 | 1012.2 |
| 20260905172910 | 72 | 72 | 0.0 | 0.0 | 0.00 | 0.04 | 0.02 | 84 | 1012.2 |
| 20260905172805 | 71 | 74 | 0.0 | 0.0 | 0.00 | 0.04 | 0.02 | 84 | 1012.2 |
| 20260905172702 | 71 | 69 | 0.0 | 0.0 | 0.00 | 0.04 | 0.02 | 84 | 1012.2 |
| 20260905172557 | 71 | 69 | 0.0 | 0.0 | 0.00 | 0.04 | 0.02 | 84 | 1012.1 |
| 20260905172449 | 71 | 70 | 0.0 | 0.0 | 0.00 | 0.04 | 0.02 | 84 | 1012.2 |
| 20260905172346 | 71 | 71 | 0.0 | 0.0 | 0.00 | 0.04 | 0.02 | 85 | 1012.2 |
| 20260905172239 | 71 | 36 | 0.0 | 4.0 | 0.00 | 0.04 | 0.02 | 85 | 1012.2 |
| 20260905172132 | 71 | 35 | 0.0 | 4.0 | 0.00 | 0.04 | 0.02 | 85 | 1012.2 |
| 20260905172025 | 71 | 68 | 0.0 | 4.0 | 0.00 | 0.04 | 0.02 | 85 | 1012.2 |
| 20260905171922 | 71 | 65 | 0.0 | 4.0 | 0.00 | 0.04 | 0.02 | 85 | 1012.3 |
| 20260905171816 | 71 | 45 | 0.0 | 2.0 | 0.00 | 0.04 | 0.02 | 85 | 1012.2 |
| 20260905171711 | 71 | 39 | 0.0 | 2.0 | 0.00 | 0.04 | 0.02 | 85 | 1012.2 |
| 20260905171606 | 71 | 69 | 0.0 | 0.0 | 0.00 | 0.04 | 0.02 | 85 | 1012.2 |
| 20260905171459 | 71 | 73 | 0.0 | 0.0 | 0.00 | 0.04 | 0.02 | 85 | 1012.3 |
| 20260905171354 | 71 | 75 | 0.0 | 0.0 | 0.00 | 0.04 | 0.02 | 85 | 1012.3 |
| 20260905171249 | 71 | 71 | 0.0 | 0.0 | 0.00 | 0.04 | 0.02 | 86 | 1012.3 |
| 20260905171141 | 71 | 71 | 0.0 | 0.0 | 0.00 | 0.04 | 0.02 | 86 | 1012.3 |
| 20260905171037 | 71 | 80 | 0.0 | 0.0 | 0.00 | 0.04 | 0.02 | 86 | 1012.2 |
| 20260905170929 | 71 | 79 | 0.0 | 0.0 | 0.00 | 0.04 | 0.02 | 86 | 1012.2 |
| 20260905170823 | 71 | 81 | 0.0 | 0.0 | 0.00 | 0.04 | 0.02 | 86 | 1012.3 |
| 20260905170720 | 71 | 79 | 1.0 | 0.0 | 0.00 | 0.04 | 0.02 | 86 | 1012.3 |
| 20260905170618 | 71 | 80 | 1.0 | 0.0 | 0.00 | 0.04 | 0.02 | 86 | 1012.3 |
| 20260905170516 | 71 | 80 | 1.0 | 0.0 | 0.00 | 0.04 | 0.02 | 85 | 1012.3 |
| 20260905170413 | 71 | 85 | 2.0 | 7.0 | 0.00 | 0.04 | 0.02 | 85 | 1012.3 |
| 20260905170310 | 71 | 92 | 2.0 | 7.0 | 0.00 | 0.04 | 0.02 | 85 | 1012.3 |
| 20260905170207 | 71 | 92 | 2.0 | 7.0 | 0.00 | 0.04 | 0.02 | 85 | 1012.3 |
| 20260905165624 | 71 | 70 | 1.0 | 7.0 | 0.00 | 0.04 | 0.02 | 84 | 1012.3 |
| 20260905165517 | 71 | 64 | 1.0 | 7.0 | 0.00 | 0.04 | 0.02 | 84 | 1012.3 |
| 20260905165411 | 71 | 45 | 1.0 | 7.0 | 0.00 | 0.04 | 0.02 | 84 | 1012.3 |
| 20260905165306 | 71 | 77 | 1.0 | 6.0 | 0.00 | 0.04 | 0.02 | 84 | 1012.3 |
| 20260905165201 | 71 | 49 | 1.0 | 6.0 | 0.00 | 0.04 | 0.02 | 84 | 1012.3 |
| 20260905165059 | 71 | 67 | 1.0 | 6.0 | 0.00 | 0.04 | 0.02 | 84 | 1012.3 |
| 20260905164952 | 71 | 62 | 1.0 | 0.0 | 0.00 | 0.04 | 0.02 | 84 | 1012.3 |
| 20260905164848 | 71 | 70 | 1.0 | 0.0 | 0.00 | 0.04 | 0.02 | 85 | 1012.4 |
| 20260905164747 | 71 | 70 | 1.0 | 6.0 | 0.00 | 0.04 | 0.02 | 84 | 1012.4 |
| 20260905164639 | 71 | 69 | 1.0 | 6.0 | 0.00 | 0.04 | 0.02 | 84 | 1012.4 |
| 20260905164316 | 71 | 84 | 0.0 | 6.0 | 0.00 | 0.04 | 0.02 | 84 | 1012.4 |
| 20260905164209 | 71 | 68 | 0.0 | 6.0 | 0.00 | 0.04 | 0.02 | 84 | 1012.4 |
| 20260905164107 | 71 | 57 | 0.0 | 6.0 | 0.00 | 0.04 | 0.02 | 84 | 1012.4 |
| 20260905164003 | 72 | 92 | 0.0 | 4.0 | 0.00 | 0.04 | 0.02 | 84 | 1012.5 |
| 20260905163859 | 72 | 94 | 0.0 | 4.0 | 0.00 | 0.04 | 0.02 | 84 | 1012.5 |
| 20260905163755 | 72 | 51 | 0.0 | 4.0 | 0.00 | 0.04 | 0.02 | 84 | 1012.5 |
| 20260905163651 | 72 | 61 | 0.0 | 3.0 | 0.00 | 0.04 | 0.02 | 84 | 1012.5 |
| 20260905163544 | 72 | 61 | 0.0 | 3.0 | 0.00 | 0.04 | 0.02 | 84 | 1012.5 |
| 20260905163439 | 72 | 67 | 0.0 | 0.0 | 0.00 | 0.04 | 0.02 | 84 | 1012.5 |
| 20260905163333 | 72 | 18 | 0.0 | 3.0 | 0.00 | 0.04 | 0.02 | 85 | 1012.5 |
| 20260905163231 | 72 | 61 | 0.0 | 3.0 | 0.00 | 0.05 | 0.02 | 85 | 1012.6 |
| 20260905163127 | 72 | 61 | 0.0 | 3.0 | 0.00 | 0.05 | 0.02 | 85 | 1012.6 |
| 20260905162803 | 72 | 48 | 0.0 | 0.0 | 0.00 | 0.05 | 0.02 | 85 | 1012.6 |
| 20260905162440 | 72 | 49 | 0.0 | 0.0 | 0.00 | 0.05 | 0.02 | 86 | 1012.7 |
| 20260905162334 | 72 | 49 | 0.0 | 0.0 | 0.00 | 0.05 | 0.02 | 86 | 1012.6 |